Observation data for Lesley on 09/18/2019      Previous  Date  Next       Current Mesonet Observations  Soil Data  Daily Summary Page  Observations in Plain Language
KLE1 180500Z 10006KT 24/16 A2996 RMK A01 T02390156  RH  060%=      5-min Rain = 0
KLE1 180501Z 10006KT 24/16 A2996 RMK A01 T02380156  RH  060%=      5-min Rain = 0
KLE1 180502Z 11006KT 24/16 A2996 RMK A01 T02380157  RH  060%=      5-min Rain = 0
KLE1 180503Z 11006KT 24/16 A2996 RMK A01 T02380157  RH  060%=      5-min Rain = 0
KLE1 180504Z 11006KT 24/16 A2996 RMK A01 T02390158  RH  060%=      5-min Rain = 0
KLE1 180505Z 12006KT 24/16 A2996 RMK A01 T02390158  RH  060%=      5-min Rain = 0
KLE1 180506Z 12006KT 24/16 A2996 RMK A01 T02400158  RH  060%=      5-min Rain = 0
KLE1 180507Z 12006KT 24/16 A2996 RMK A01 T02400158  RH  060%=      5-min Rain = 0
KLE1 180508Z 12006KT 24/16 A2996 RMK A01 T02400158  RH  060%=      5-min Rain = 0
KLE1 180509Z 12006KT 24/16 A2996 RMK A01 T02410158  RH  060%=      5-min Rain = 0
KLE1 180510Z 12006KT 24/16 A2996 RMK A01 T02400158  RH  060%=      5-min Rain = 0
KLE1 180511Z 12006KT 24/16 A2996 RMK A01 T02410158  RH  060%=      5-min Rain = 0
KLE1 180512Z 12006KT 24/16 A2996 RMK A01 T02410158  RH  060%=      5-min Rain = 0
KLE1 180513Z 12006KT 24/16 A2996 RMK A01 T02410158  RH  060%=      5-min Rain = 0
KLE1 180514Z 12006KT 24/16 A2996 RMK A01 T02400159  RH  060%=      5-min Rain = 0
KLE1 180515Z 11006KT 24/16 A2996 RMK A01 T02410159  RH  060%=      5-min Rain = 0
KLE1 180516Z 11007KT 24/16 A2996 RMK A01 T02410159  RH  060%=      5-min Rain = 0
KLE1 180517Z 11007KT 24/16 A2996 RMK A01 T02410159  RH  060%=      5-min Rain = 0
KLE1 180518Z 10006KT 24/16 A2996 RMK A01 T02410159  RH  060%=      5-min Rain = 0
KLE1 180519Z 10006KT 24/16 A2996 RMK A01 T02400158  RH  060%=      5-min Rain = 0
KLE1 180520Z 09005KT 24/16 A2996 RMK A01 T02390157  RH  060%=      5-min Rain = 0
KLE1 180521Z 09004KT 24/16 A2996 RMK A01 T02380157  RH  061%=      5-min Rain = 0
KLE1 180522Z 08004KT 24/16 A2996 RMK A01 T02370158  RH  061%=      5-min Rain = 0
KLE1 180523Z 09004KT 24/16 A2996 RMK A01 T02370158  RH  061%=      5-min Rain = 0
KLE1 180524Z 09004KT 24/16 A2996 RMK A01 T02360158  RH  061%=      5-min Rain = 0
KLE1 180525Z 10004KT 24/16 A2996 RMK A01 T02350158  RH  062%=      5-min Rain = 0
KLE1 180526Z 11004KT 24/16 A2996 RMK A01 T02350158  RH  062%=      5-min Rain = 0
KLE1 180527Z 11004KT 23/16 A2996 RMK A01 T02340158  RH  062%=      5-min Rain = 0
KLE1 180528Z 11004KT 23/16 A2996 RMK A01 T02340159  RH  063%=      5-min Rain = 0
KLE1 180529Z 10004KT 23/16 A2996 RMK A01 T02340159  RH  063%=      5-min Rain = 0
KLE1 180530Z 10004KT 23/16 A2996 RMK A01 T02340159  RH  063%=      5-min Rain = 0
KLE1 180531Z 10005KT 23/16 A2996 RMK A01 T02340159  RH  063%=      5-min Rain = 0
KLE1 180532Z 10005KT 23/16 A2996 RMK A01 T02340158  RH  062%=      5-min Rain = 0
KLE1 180533Z 10005KT 23/16 A2996 RMK A01 T02340159  RH  063%=      5-min Rain = 0
KLE1 180534Z 10005KT 23/16 A2996 RMK A01 T02330158  RH  063%=      5-min Rain = 0
KLE1 180535Z 11006KT 23/16 A2996 RMK A01 T02320158  RH  063%=      5-min Rain = 0
KLE1 180536Z 11006KT 23/16 A2996 RMK A01 T02300158  RH  064%=      5-min Rain = 0
KLE1 180537Z 12006KT 23/16 A2996 RMK A01 T02300158  RH  064%=      5-min Rain = 0
KLE1 180538Z 12006KT 23/16 A2996 RMK A01 T02310159  RH  064%=      5-min Rain = 0
KLE1 180539Z 12007KT 23/16 A2996 RMK A01 T02330160  RH  064%=      5-min Rain = 0
KLE1 180540Z 12007KT 23/16 A2996 RMK A01 T02340160  RH  063%=      5-min Rain = 0
KLE1 180541Z 12006KT 24/16 A2996 RMK A01 T02350160  RH  063%=      5-min Rain = 0
KLE1 180542Z 12007KT 24/16 A2996 RMK A01 T02360160  RH  062%=      5-min Rain = 0
KLE1 180543Z 12006KT 24/16 A2996 RMK A01 T02360159  RH  062%=      5-min Rain = 0
KLE1 180544Z 12006KT 24/16 A2996 RMK A01 T02360159  RH  062%=      5-min Rain = 0
KLE1 180545Z 12006KT 24/16 A2996 RMK A01 T02360159  RH  062%=      5-min Rain = 0
KLE1 180546Z 12006KT 24/16 A2996 RMK A01 T02360159  RH  062%=      5-min Rain = 0
KLE1 180547Z 12005KT 24/16 A2996 RMK A01 T02360159  RH  062%=      5-min Rain = 0
KLE1 180548Z 12005KT 24/16 A2996 RMK A01 T02360159  RH  062%=      5-min Rain = 0
KLE1 180549Z 11006KT 24/16 A2996 RMK A01 T02350159  RH  062%=      5-min Rain = 0
KLE1 180550Z 12006KT 23/16 A2996 RMK A01 T02340159  RH  062%=      5-min Rain = 0
KLE1 180551Z 12007KT 24/16 A2996 RMK A01 T02350159  RH  062%=      5-min Rain = 0
KLE1 180552Z 12007KT 24/16 A2996 RMK A01 T02350159  RH  062%=      5-min Rain = 0
KLE1 180553Z 12007KT 23/16 A2996 RMK A01 T02340158  RH  062%=      5-min Rain = 0
KLE1 180554Z 13007KT 24/16 A2996 RMK A01 T02350158  RH  062%=      5-min Rain = 0
KLE1 180555Z 13007KT 24/16 A2996 RMK A01 T02350159  RH  062%=      5-min Rain = 0
KLE1 180556Z 13008KT 23/16 A2996 RMK A01 T02340159  RH  062%=      5-min Rain = 0
KLE1 180557Z 13007KT 24/16 A2996 RMK A01 T02350160  RH  063%=      5-min Rain = 0
KLE1 180558Z 13008KT 24/16 A2996 RMK A01 T02350160  RH  063%=      5-min Rain = 0
KLE1 180559Z 13008KT 24/16 A2996 RMK A01 T02350160  RH  063%=      5-min Rain = 0
KLE1 180600Z 13008KT 24/16 A2996 RMK A01 T02350160  RH  063%=      5-min Rain = 0
KLE1 180601Z 13008KT 23/16 A2996 RMK A01 T02340160  RH  063%=      5-min Rain = 0
KLE1 180602Z 13008KT 23/16 A2996 RMK A01 T02340160  RH  063%=      5-min Rain = 0
KLE1 180603Z 12008KT 23/16 A2996 RMK A01 T02330159  RH  063%=      5-min Rain = 0
KLE1 180604Z 12008KT 23/16 A2996 RMK A01 T02330160  RH  063%=      5-min Rain = 0
KLE1 180605Z 12008KT 23/16 A2996 RMK A01 T02330160  RH  063%=      5-min Rain = 0
KLE1 180606Z 12008KT 23/16 A2996 RMK A01 T02330159  RH  063%=      5-min Rain = 0
KLE1 180607Z 12007KT 23/16 A2996 RMK A01 T02330159  RH  063%=      5-min Rain = 0
KLE1 180608Z 13007KT 23/16 A2996 RMK A01 T02330160  RH  064%=      5-min Rain = 0
KLE1 180609Z 13007KT 23/16 A2996 RMK A01 T02330160  RH  064%=      5-min Rain = 0
KLE1 180610Z 12007KT 23/16 A2996 RMK A01 T02320160  RH  064%=      5-min Rain = 0
KLE1 180611Z 12007KT 23/16 A2996 RMK A01 T02320160  RH  064%=      5-min Rain = 0
KLE1 180612Z 12007KT 23/16 A2996 RMK A01 T02320160  RH  064%=      5-min Rain = 0
KLE1 180613Z 13006KT 23/16 A2996 RMK A01 T02320160  RH  064%=      5-min Rain = 0
KLE1 180614Z 12006KT 23/16 A2996 RMK A01 T02310160  RH  064%=      5-min Rain = 0
KLE1 180615Z 13007KT 23/16 A2996 RMK A01 T02310160  RH  064%=      5-min Rain = 0
KLE1 180616Z 12006KT 23/16 A2996 RMK A01 T02310160  RH  064%=      5-min Rain = 0
KLE1 180617Z 12006KT 23/16 A2996 RMK A01 T02310160  RH  064%=      5-min Rain = 0
KLE1 180618Z 11005KT 23/16 A2996 RMK A01 T02320160  RH  064%=      5-min Rain = 0
KLE1 180619Z 10005KT 23/16 A2996 RMK A01 T02320160  RH  064%=      5-min Rain = 0
KLE1 180620Z 10005KT 23/16 A2996 RMK A01 T02310159  RH  064%=      5-min Rain = 0
KLE1 180621Z 10005KT 23/16 A2996 RMK A01 T02290158  RH  064%=      5-min Rain = 0
KLE1 180622Z 10005KT 23/16 A2996 RMK A01 T02280158  RH  064%=      5-min Rain = 0
KLE1 180623Z 10005KT 23/16 A2996 RMK A01 T02290158  RH  064%=      5-min Rain = 0
KLE1 180624Z 10006KT 23/16 A2996 RMK A01 T02290158  RH  064%=      5-min Rain = 0
KLE1 180625Z 10005KT 23/16 A2996 RMK A01 T02290158  RH  064%=      5-min Rain = 0
KLE1 180626Z 11005KT 23/16 A2996 RMK A01 T02290158  RH  064%=      5-min Rain = 0
KLE1 180627Z 10006KT 23/16 A2996 RMK A01 T02290157  RH  064%=      5-min Rain = 0
KLE1 180628Z 11006KT 23/16 A2996 RMK A01 T02290158  RH  064%=      5-min Rain = 0
KLE1 180629Z 11006KT 23/16 A2996 RMK A01 T02290158  RH  064%=      5-min Rain = 0
KLE1 180630Z 11006KT 23/16 A2996 RMK A01 T02290158  RH  064%=      5-min Rain = 0
KLE1 180631Z 11006KT 23/16 A2996 RMK A01 T02300158  RH  064%=      5-min Rain = 0
KLE1 180632Z 11006KT 23/16 A2996 RMK A01 T02300158  RH  064%=      5-min Rain = 0
KLE1 180633Z 12006KT 23/16 A2996 RMK A01 T02300158  RH  064%=      5-min Rain = 0
KLE1 180634Z 12006KT 23/16 A2996 RMK A01 T02300158  RH  064%=      5-min Rain = 0
KLE1 180635Z 12005KT 23/16 A2996 RMK A01 T02300158  RH  064%=      5-min Rain = 0
KLE1 180636Z 13007KT 23/16 A2996 RMK A01 T02300158  RH  064%=      5-min Rain = 0
KLE1 180637Z 12006KT 23/16 A2996 RMK A01 T02330159  RH  063%=      5-min Rain = 0
KLE1 180638Z 12006KT 23/16 A2996 RMK A01 T02340159  RH  063%=      5-min Rain = 0
KLE1 180639Z 12005KT 23/16 A2996 RMK A01 T02330158  RH  063%=      5-min Rain = 0
KLE1 180640Z 12005KT 23/16 A2996 RMK A01 T02320158  RH  063%=      5-min Rain = 0
KLE1 180641Z 12005KT 23/16 A2996 RMK A01 T02320158  RH  063%=      5-min Rain = 0
KLE1 180642Z 12006KT 23/16 A2996 RMK A01 T02320158  RH  063%=      5-min Rain = 0
KLE1 180643Z 14006KT 23/16 A2996 RMK A01 T02320159  RH  064%=      5-min Rain = 0
KLE1 180644Z 13006KT 23/16 A2996 RMK A01 T02330160  RH  064%=      5-min Rain = 0
KLE1 180645Z 14005KT 23/16 A2996 RMK A01 T02340160  RH  063%=      5-min Rain = 0
KLE1 180646Z 13005KT 23/16 A2996 RMK A01 T02340161  RH  063%=      5-min Rain = 0
KLE1 180647Z 12004KT 23/16 A2996 RMK A01 T02340160  RH  063%=      5-min Rain = 0
KLE1 180648Z 12005KT 23/16 A2996 RMK A01 T02330160  RH  063%=      5-min Rain = 0
KLE1 180649Z 12005KT 23/16 A2996 RMK A01 T02320160  RH  064%=      5-min Rain = 0
KLE1 180650Z 13005KT 23/16 A2996 RMK A01 T02310160  RH  064%=      5-min Rain = 0
KLE1 180651Z 13006KT 23/16 A2996 RMK A01 T02310160  RH  064%=      5-min Rain = 0
KLE1 180652Z 11006KT 23/16 A2996 RMK A01 T02310160  RH  064%=      5-min Rain = 0
KLE1 180653Z 11005KT 23/16 A2996 RMK A01 T02310161  RH  064%=      5-min Rain = 0
KLE1 180654Z 10005KT 23/16 A2996 RMK A01 T02310160  RH  064%=      5-min Rain = 0
KLE1 180655Z 10005KT 23/16 A2996 RMK A01 T02320161  RH  064%=      5-min Rain = 0
KLE1 180656Z 10005KT 23/16 A2996 RMK A01 T02320161  RH  064%=      5-min Rain = 0
KLE1 180657Z 10005KT 23/16 A2996 RMK A01 T02310160  RH  064%=      5-min Rain = 0
KLE1 180658Z 11004KT 23/16 A2996 RMK A01 T02310159  RH  064%=      5-min Rain = 0
KLE1 180659Z 11004KT 23/16 A2996 RMK A01 T02300159  RH  064%=      5-min Rain = 0
KLE1 180700Z 11004KT 23/16 A2996 RMK A01 T02300159  RH  064%=      5-min Rain = 0
KLE1 180701Z 11004KT 23/16 A2996 RMK A01 T02300159  RH  064%=      5-min Rain = 0
KLE1 180702Z 14006KT 23/16 A2996 RMK A01 T02300159  RH  064%=      5-min Rain = 0
KLE1 180703Z 13005KT 23/16 A2996 RMK A01 T02310161  RH  064%=      5-min Rain = 0
KLE1 180704Z 12004KT 23/16 A2996 RMK A01 T02320160  RH  064%=      5-min Rain = 0
KLE1 180705Z 13005KT 23/16 A2996 RMK A01 T02330160  RH  064%=      5-min Rain = 0
KLE1 180706Z 14005KT 23/16 A2996 RMK A01 T02320160  RH  064%=      5-min Rain = 0
KLE1 180707Z 14006KT 23/16 A2996 RMK A01 T02320160  RH  064%=      5-min Rain = 0
KLE1 180708Z 14005KT 23/16 A2996 RMK A01 T02320161  RH  064%=      5-min Rain = 0
KLE1 180709Z 14005KT 23/16 A2996 RMK A01 T02320161  RH  064%=      5-min Rain = 0
KLE1 180710Z 14006KT 23/16 A2996 RMK A01 T02310160  RH  064%=      5-min Rain = 0
KLE1 180711Z 14006KT 23/16 A2996 RMK A01 T02320161  RH  064%=      5-min Rain = 0
KLE1 180712Z 14005KT 23/16 A2996 RMK A01 T02330161  RH  064%=      5-min Rain = 0
KLE1 180713Z 14005KT 23/16 A2996 RMK A01 T02340161  RH  063%=      5-min Rain = 0
KLE1 180714Z 14006KT 23/16 A2996 RMK A01 T02330161  RH  064%=      5-min Rain = 0
KLE1 180715Z 14006KT 23/16 A2996 RMK A01 T02330161  RH  064%=      5-min Rain = 0
KLE1 180716Z 14006KT 23/16 A2997 RMK A01 T02330161  RH  064%=      5-min Rain = 0
KLE1 180717Z 14005KT 23/16 A2997 RMK A01 T02330161  RH  064%=      5-min Rain = 0
KLE1 180718Z 14006KT 23/16 A2997 RMK A01 T02330160  RH  064%=      5-min Rain = 0
KLE1 180719Z 14006KT 23/16 A2997 RMK A01 T02340161  RH  064%=      5-min Rain = 0
KLE1 180720Z 14006KT 23/16 A2997 RMK A01 T02340161  RH  063%=      5-min Rain = 0
KLE1 180721Z 14006KT 23/16 A2997 RMK A01 T02340161  RH  063%=      5-min Rain = 0
KLE1 180722Z 14007KT 23/16 A2997 RMK A01 T02340161  RH  063%=      5-min Rain = 0
KLE1 180723Z 14007KT 24/16 A2997 RMK A01 T02350161  RH  063%=      5-min Rain = 0
KLE1 180724Z 14007KT 24/16 A2996 RMK A01 T02360161  RH  063%=      5-min Rain = 0
KLE1 180725Z 14007KT 24/16 A2996 RMK A01 T02360162  RH  063%=      5-min Rain = 0
KLE1 180726Z 14007KT 24/16 A2996 RMK A01 T02360161  RH  063%=      5-min Rain = 0
KLE1 180727Z 14007KT 24/16 A2996 RMK A01 T02350161  RH  063%=      5-min Rain = 0
KLE1 180728Z 14007KT 24/16 A2996 RMK A01 T02360161  RH  063%=      5-min Rain = 0
KLE1 180729Z 14007KT 24/16 A2996 RMK A01 T02350161  RH  063%=      5-min Rain = 0
KLE1 180730Z 14006KT 24/16 A2996 RMK A01 T02350161  RH  063%=      5-min Rain = 0
KLE1 180731Z 14006KT 23/16 A2996 RMK A01 T02340161  RH  063%=      5-min Rain = 0
KLE1 180732Z 13006KT 23/16 A2996 RMK A01 T02340161  RH  064%=      5-min Rain = 0
KLE1 180733Z 13006KT 23/16 A2996 RMK A01 T02330161  RH  064%=      5-min Rain = 0
KLE1 180734Z 13006KT 23/16 A2996 RMK A01 T02330161  RH  064%=      5-min Rain = 0
KLE1 180735Z 13006KT 23/16 A2996 RMK A01 T02320160  RH  064%=      5-min Rain = 0
KLE1 180736Z 13005KT 23/16 A2996 RMK A01 T02310160  RH  064%=      5-min Rain = 0
KLE1 180737Z 13006KT 23/16 A2996 RMK A01 T02300160  RH  065%=      5-min Rain = 0
KLE1 180738Z 12006KT 23/16 A2996 RMK A01 T02290160  RH  065%=      5-min Rain = 0
KLE1 180739Z 12006KT 23/16 A2996 RMK A01 T02290161  RH  065%=      5-min Rain = 0
KLE1 180740Z 11005KT 23/16 A2996 RMK A01 T02290161  RH  066%=      5-min Rain = 0
KLE1 180741Z 11005KT 23/16 A2996 RMK A01 T02280161  RH  066%=      5-min Rain = 0
KLE1 180742Z 11005KT 23/16 A2997 RMK A01 T02270160  RH  066%=      5-min Rain = 0
KLE1 180743Z 10005KT 23/16 A2997 RMK A01 T02270160  RH  066%=      5-min Rain = 0
KLE1 180744Z 10005KT 23/16 A2997 RMK A01 T02260159  RH  066%=      5-min Rain = 0
KLE1 180745Z 11005KT 23/16 A2997 RMK A01 T02260160  RH  066%=      5-min Rain = 0
KLE1 180746Z 11005KT 23/16 A2997 RMK A01 T02260160  RH  066%=      5-min Rain = 0
KLE1 180747Z 11005KT 23/16 A2996 RMK A01 T02260160  RH  066%=      5-min Rain = 0
KLE1 180748Z 11005KT 23/16 A2996 RMK A01 T02260160  RH  066%=      5-min Rain = 0
KLE1 180749Z 11005KT 23/16 A2996 RMK A01 T02260160  RH  066%=      5-min Rain = 0
KLE1 180750Z 11005KT 23/16 A2996 RMK A01 T02260160  RH  066%=      5-min Rain = 0
KLE1 180751Z 11006KT 23/16 A2996 RMK A01 T02260160  RH  066%=      5-min Rain = 0
KLE1 180752Z 11005KT 23/16 A2996 RMK A01 T02260160  RH  066%=      5-min Rain = 0
KLE1 180753Z 11005KT 23/16 A2996 RMK A01 T02260160  RH  066%=      5-min Rain = 0
KLE1 180754Z 12005KT 23/16 A2996 RMK A01 T02260160  RH  066%=      5-min Rain = 0
KLE1 180755Z 12005KT 23/16 A2996 RMK A01 T02270160  RH  066%=      5-min Rain = 0
KLE1 180756Z 12005KT 23/16 A2996 RMK A01 T02270161  RH  066%=      5-min Rain = 0
KLE1 180757Z 12005KT 23/16 A2996 RMK A01 T02270160  RH  066%=      5-min Rain = 0
KLE1 180758Z 13006KT 23/16 A2996 RMK A01 T02270160  RH  066%=      5-min Rain = 0
KLE1 180759Z 12006KT 23/16 A2996 RMK A01 T02280161  RH  066%=      5-min Rain = 0
KLE1 180800Z 12005KT 23/16 A2996 RMK A01 T02280160  RH  066%=      5-min Rain = 0
KLE1 180801Z 12006KT 23/16 A2996 RMK A01 T02280160  RH  066%=      5-min Rain = 0
KLE1 180802Z 13006KT 23/16 A2996 RMK A01 T02280160  RH  066%=      5-min Rain = 0
KLE1 180803Z 12006KT 23/16 A2996 RMK A01 T02270160  RH  066%=      5-min Rain = 0
KLE1 180804Z 13007KT 23/16 A2996 RMK A01 T02270160  RH  066%=      5-min Rain = 0
KLE1 180805Z 12006KT 23/16 A2996 RMK A01 T02270161  RH  066%=      5-min Rain = 0
KLE1 180806Z 13007KT 23/16 A2996 RMK A01 T02270160  RH  066%=      5-min Rain = 0
KLE1 180807Z 13007KT 23/16 A2996 RMK A01 T02260160  RH  066%=      5-min Rain = 0
KLE1 180808Z 12006KT 23/16 A2996 RMK A01 T02260161  RH  067%=      5-min Rain = 0
KLE1 180809Z 13006KT 23/16 A2996 RMK A01 T02260160  RH  067%=      5-min Rain = 0
KLE1 180810Z 13006KT 23/16 A2996 RMK A01 T02260161  RH  067%=      5-min Rain = 0
KLE1 180811Z 12006KT 23/16 A2996 RMK A01 T02260161  RH  067%=      5-min Rain = 0
KLE1 180812Z 12006KT 23/16 A2996 RMK A01 T02260161  RH  067%=      5-min Rain = 0
KLE1 180813Z 12005KT 23/16 A2996 RMK A01 T02250160  RH  067%=      5-min Rain = 0
KLE1 180814Z 11006KT 23/16 A2996 RMK A01 T02250160  RH  067%=      5-min Rain = 0
KLE1 180815Z 12005KT 22/16 A2996 RMK A01 T02240160  RH  067%=      5-min Rain = 0
KLE1 180816Z 12006KT 22/16 A2996 RMK A01 T02240161  RH  067%=      5-min Rain = 0
KLE1 180817Z 12005KT 22/16 A2996 RMK A01 T02240161  RH  067%=      5-min Rain = 0
KLE1 180818Z 12005KT 23/16 A2996 RMK A01 T02250161  RH  067%=      5-min Rain = 0
KLE1 180819Z 11005KT 23/16 A2996 RMK A01 T02250161  RH  067%=      5-min Rain = 0
KLE1 180820Z 11005KT 22/16 A2996 RMK A01 T02240161  RH  067%=      5-min Rain = 0
KLE1 180821Z 11005KT 22/16 A2996 RMK A01 T02240161  RH  067%=      5-min Rain = 0
KLE1 180822Z 11005KT 22/16 A2996 RMK A01 T02240160  RH  067%=      5-min Rain = 0
KLE1 180823Z 11005KT 22/16 A2996 RMK A01 T02230160  RH  067%=      5-min Rain = 0
KLE1 180824Z 10005KT 22/16 A2996 RMK A01 T02230160  RH  068%=      5-min Rain = 0
KLE1 180825Z 11006KT 22/16 A2996 RMK A01 T02230160  RH  067%=      5-min Rain = 0
KLE1 180826Z 11006KT 22/16 A2996 RMK A01 T02230160  RH  068%=      5-min Rain = 0
KLE1 180827Z 11006KT 22/16 A2996 RMK A01 T02230160  RH  068%=      5-min Rain = 0
KLE1 180828Z 11006KT 22/16 A2996 RMK A01 T02230160  RH  068%=      5-min Rain = 0
KLE1 180829Z 11007KT 22/16 A2996 RMK A01 T02230160  RH  068%=      5-min Rain = 0
KLE1 180830Z 11007KT 22/16 A2996 RMK A01 T02220160  RH  068%=      5-min Rain = 0
KLE1 180831Z 12007KT 22/16 A2996 RMK A01 T02220160  RH  068%=      5-min Rain = 0
KLE1 180832Z 12007KT 22/16 A2996 RMK A01 T02220161  RH  068%=      5-min Rain = 0
KLE1 180833Z 12007KT 22/16 A2996 RMK A01 T02220161  RH  068%=      5-min Rain = 0
KLE1 180834Z 11008KT 22/16 A2996 RMK A01 T02220161  RH  068%=      5-min Rain = 0
KLE1 180835Z 11008KT 22/16 A2996 RMK A01 T02220161  RH  068%=      5-min Rain = 0
KLE1 180836Z 11007KT 22/16 A2996 RMK A01 T02220161  RH  068%=      5-min Rain = 0
KLE1 180837Z 11007KT 22/16 A2996 RMK A01 T02220161  RH  068%=      5-min Rain = 0
KLE1 180838Z 11007KT 22/16 A2996 RMK A01 T02220161  RH  068%=      5-min Rain = 0
KLE1 180839Z 11007KT 22/16 A2996 RMK A01 T02220161  RH  068%=      5-min Rain = 0
KLE1 180840Z 11007KT 22/16 A2996 RMK A01 T02210161  RH  068%=      5-min Rain = 0
KLE1 180841Z 12007KT 22/16 A2996 RMK A01 T02220161  RH  068%=      5-min Rain = 0
KLE1 180842Z 11008KT 22/16 A2996 RMK A01 T02220161  RH  068%=      5-min Rain = 0
KLE1 180843Z 11008KT 22/16 A2996 RMK A01 T02230162  RH  068%=      5-min Rain = 0
KLE1 180844Z 11007KT 22/16 A2996 RMK A01 T02230162  RH  068%=      5-min Rain = 0
KLE1 180845Z 11007KT 22/16 A2996 RMK A01 T02240162  RH  068%=      5-min Rain = 0
KLE1 180846Z 12008KT 22/16 A2996 RMK A01 T02240161  RH  068%=      5-min Rain = 0
KLE1 180847Z 12008KT 22/16 A2996 RMK A01 T02240162  RH  068%=      5-min Rain = 0
KLE1 180848Z 12008KT 22/16 A2996 RMK A01 T02240162  RH  068%=      5-min Rain = 0
KLE1 180849Z 12008KT 22/16 A2996 RMK A01 T02240162  RH  068%=      5-min Rain = 0
KLE1 180850Z 12008KT 22/16 A2996 RMK A01 T02240162  RH  068%=      5-min Rain = 0
KLE1 180851Z 12008KT 22/16 A2996 RMK A01 T02240162  RH  068%=      5-min Rain = 0
KLE1 180852Z 12008KT 22/16 A2996 RMK A01 T02230162  RH  068%=      5-min Rain = 0
KLE1 180853Z 12008KT 22/16 A2996 RMK A01 T02230162  RH  068%=      5-min Rain = 0
KLE1 180854Z 12008KT 22/16 A2996 RMK A01 T02220162  RH  069%=      5-min Rain = 0
KLE1 180855Z 12008KT 22/16 A2996 RMK A01 T02220163  RH  069%=      5-min Rain = 0
KLE1 180856Z 12008KT 22/16 A2996 RMK A01 T02220162  RH  069%=      5-min Rain = 0
KLE1 180857Z 12008KT 22/16 A2996 RMK A01 T02210162  RH  069%=      5-min Rain = 0
KLE1 180858Z 12008KT 22/16 A2996 RMK A01 T02210162  RH  069%=      5-min Rain = 0
KLE1 180859Z 12008KT 22/16 A2996 RMK A01 T02200162  RH  070%=      5-min Rain = 0
KLE1 180900Z 12007KT 22/16 A2996 RMK A01 T02200162  RH  070%=      5-min Rain = 0
KLE1 180901Z 12007KT 22/16 A2996 RMK A01 T02200163  RH  070%=      5-min Rain = 0
KLE1 180902Z 11007KT 22/16 A2996 RMK A01 T02190162  RH  070%=      5-min Rain = 0
KLE1 180903Z 11008KT 22/16 A2996 RMK A01 T02190162  RH  070%=      5-min Rain = 0
KLE1 180904Z 11007KT 22/16 A2996 RMK A01 T02190163  RH  070%=      5-min Rain = 0
KLE1 180905Z 11007KT 22/16 A2996 RMK A01 T02190163  RH  070%=      5-min Rain = 0
KLE1 180906Z 11006KT 22/16 A2996 RMK A01 T02190162  RH  070%=      5-min Rain = 0
KLE1 180907Z 11006KT 22/16 A2996 RMK A01 T02180162  RH  070%=      5-min Rain = 0
KLE1 180908Z 11007KT 22/16 A2996 RMK A01 T02180161  RH  070%=      5-min Rain = 0
KLE1 180909Z 11007KT 22/16 A2996 RMK A01 T02170161  RH  070%=      5-min Rain = 0
KLE1 180910Z 11007KT 22/16 A2996 RMK A01 T02180162  RH  070%=      5-min Rain = 0
KLE1 180911Z 11007KT 22/16 A2996 RMK A01 T02180162  RH  070%=      5-min Rain = 0
KLE1 180912Z 11007KT 22/16 A2996 RMK A01 T02180161  RH  070%=      5-min Rain = 0
KLE1 180913Z 11006KT 22/16 A2996 RMK A01 T02180162  RH  070%=      5-min Rain = 0
KLE1 180914Z 11006KT 22/16 A2996 RMK A01 T02180161  RH  070%=      5-min Rain = 0
KLE1 180915Z 11006KT 22/16 A2996 RMK A01 T02180161  RH  070%=      5-min Rain = 0
KLE1 180916Z 11006KT 22/16 A2996 RMK A01 T02180162  RH  070%=      5-min Rain = 0
KLE1 180917Z 11006KT 22/16 A2996 RMK A01 T02180161  RH  070%=      5-min Rain = 0
KLE1 180918Z 10006KT 22/16 A2996 RMK A01 T02180161  RH  070%=      5-min Rain = 0
KLE1 180919Z 10006KT 22/16 A2996 RMK A01 T02170161  RH  070%=      5-min Rain = 0
KLE1 180920Z 10006KT 22/16 A2996 RMK A01 T02170161  RH  070%=      5-min Rain = 0
KLE1 180921Z 10006KT 22/16 A2996 RMK A01 T02170161  RH  071%=      5-min Rain = 0
KLE1 180922Z 10006KT 22/16 A2996 RMK A01 T02160161  RH  071%=      5-min Rain = 0
KLE1 180923Z 10005KT 22/16 A2996 RMK A01 T02160161  RH  071%=      5-min Rain = 0
KLE1 180924Z 10005KT 22/16 A2996 RMK A01 T02160161  RH  071%=      5-min Rain = 0
KLE1 180925Z 09005KT 22/16 A2996 RMK A01 T02160161  RH  071%=      5-min Rain = 0
KLE1 180926Z 09005KT 22/16 A2996 RMK A01 T02160161  RH  071%=      5-min Rain = 0
KLE1 180927Z 09005KT 22/16 A2996 RMK A01 T02150160  RH  071%=      5-min Rain = 0
KLE1 180928Z 09006KT 22/16 A2996 RMK A01 T02150160  RH  071%=      5-min Rain = 0
KLE1 180929Z 09006KT 21/16 A2996 RMK A01 T02140160  RH  071%=      5-min Rain = 0
KLE1 180930Z 09006KT 21/16 A2996 RMK A01 T02140160  RH  071%=      5-min Rain = 0
KLE1 180931Z 09006KT 21/16 A2996 RMK A01 T02140160  RH  072%=      5-min Rain = 0
KLE1 180932Z 09006KT 21/16 A2996 RMK A01 T02140160  RH  072%=      5-min Rain = 0
KLE1 180933Z 09006KT 21/16 A2996 RMK A01 T02140160  RH  072%=      5-min Rain = 0
KLE1 180934Z 09006KT 21/16 A2996 RMK A01 T02140160  RH  072%=      5-min Rain = 0
KLE1 180935Z 09006KT 21/16 A2996 RMK A01 T02130160  RH  072%=      5-min Rain = 0
KLE1 180936Z 09006KT 21/16 A2996 RMK A01 T02130160  RH  072%=      5-min Rain = 0
KLE1 180937Z 09006KT 21/16 A2996 RMK A01 T02120160  RH  072%=      5-min Rain = 0
KLE1 180938Z 09006KT 21/16 A2996 RMK A01 T02120160  RH  072%=      5-min Rain = 0
KLE1 180939Z 09006KT 21/16 A2996 RMK A01 T02110160  RH  073%=      5-min Rain = 0
KLE1 180940Z 09006KT 21/16 A2996 RMK A01 T02110161  RH  073%=      5-min Rain = 0
KLE1 180941Z 10006KT 21/16 A2996 RMK A01 T02110161  RH  073%=      5-min Rain = 0
KLE1 180942Z 10005KT 21/16 A2996 RMK A01 T02110161  RH  073%=      5-min Rain = 0
KLE1 180943Z 10005KT 21/16 A2996 RMK A01 T02110161  RH  073%=      5-min Rain = 0
KLE1 180944Z 10005KT 21/16 A2996 RMK A01 T02110161  RH  073%=      5-min Rain = 0
KLE1 180945Z 10006KT 21/16 A2996 RMK A01 T02110161  RH  073%=      5-min Rain = 0
KLE1 180946Z 10006KT 21/16 A2996 RMK A01 T02110161  RH  073%=      5-min Rain = 0
KLE1 180947Z 10006KT 21/16 A2996 RMK A01 T02110161  RH  073%=      5-min Rain = 0
KLE1 180948Z 10005KT 21/16 A2996 RMK A01 T02110161  RH  073%=      5-min Rain = 0
KLE1 180949Z 10005KT 21/16 A2996 RMK A01 T02110161  RH  073%=      5-min Rain = 0
KLE1 180950Z 10005KT 21/16 A2996 RMK A01 T02110161  RH  073%=      5-min Rain = 0
KLE1 180951Z 10005KT 21/16 A2996 RMK A01 T02110162  RH  073%=      5-min Rain = 0
KLE1 180952Z 10005KT 21/16 A2996 RMK A01 T02110162  RH  073%=      5-min Rain = 0
KLE1 180953Z 10005KT 21/16 A2996 RMK A01 T02120162  RH  073%=      5-min Rain = 0
KLE1 180954Z 10005KT 21/16 A2996 RMK A01 T02120162  RH  073%=      5-min Rain = 0
KLE1 180955Z 10005KT 21/16 A2996 RMK A01 T02120162  RH  073%=      5-min Rain = 0
KLE1 180956Z 10005KT 21/16 A2996 RMK A01 T02120162  RH  073%=      5-min Rain = 0
KLE1 180957Z 09006KT 21/16 A2996 RMK A01 T02120162  RH  073%=      5-min Rain = 0
KLE1 180958Z 09006KT 21/16 A2996 RMK A01 T02110162  RH  073%=      5-min Rain = 0
KLE1 180959Z 09006KT 21/16 A2996 RMK A01 T02110162  RH  073%=      5-min Rain = 0
KLE1 181000Z 09006KT 21/16 A2996 RMK A01 T02110162  RH  074%=      5-min Rain = 0
KLE1 181001Z 09006KT 21/16 A2996 RMK A01 T02100161  RH  074%=      5-min Rain = 0
KLE1 181002Z 09007KT 21/16 A2996 RMK A01 T02090161  RH  074%=      5-min Rain = 0
KLE1 181003Z 09007KT 21/16 A2996 RMK A01 T02080160  RH  074%=      5-min Rain = 0
KLE1 181004Z 09008KT 21/16 A2996 RMK A01 T02070160  RH  074%=      5-min Rain = 0
KLE1 181005Z 09008KT 21/16 A2996 RMK A01 T02070160  RH  075%=      5-min Rain = 0
KLE1 181006Z 10008KT 21/16 A2996 RMK A01 T02060161  RH  075%=      5-min Rain = 0
KLE1 181007Z 10007KT 21/16 A2996 RMK A01 T02060161  RH  075%=      5-min Rain = 0
KLE1 181008Z 10007KT 21/16 A2996 RMK A01 T02060161  RH  075%=      5-min Rain = 0
KLE1 181009Z 10007KT 21/16 A2996 RMK A01 T02070161  RH  075%=      5-min Rain = 0
KLE1 181010Z 10007KT 21/16 A2996 RMK A01 T02070161  RH  075%=      5-min Rain = 0
KLE1 181011Z 10006KT 21/16 A2996 RMK A01 T02070161  RH  075%=      5-min Rain = 0
KLE1 181012Z 09006KT 21/16 A2996 RMK A01 T02080162  RH  075%=      5-min Rain = 0
KLE1 181013Z 09006KT 21/16 A2996 RMK A01 T02080162  RH  075%=      5-min Rain = 0
KLE1 181014Z 09006KT 21/16 A2996 RMK A01 T02080162  RH  075%=      5-min Rain = 0
KLE1 181015Z 09006KT 21/16 A2996 RMK A01 T02080162  RH  075%=      5-min Rain = 0
KLE1 181016Z 09006KT 21/16 A2996 RMK A01 T02090162  RH  075%=      5-min Rain = 0
KLE1 181017Z 09006KT 21/16 A2996 RMK A01 T02090162  RH  075%=      5-min Rain = 0
KLE1 181018Z 09007KT 21/16 A2996 RMK A01 T02090162  RH  075%=      5-min Rain = 0
KLE1 181019Z 09007KT 21/16 A2996 RMK A01 T02080162  RH  075%=      5-min Rain = 0
KLE1 181020Z 09006KT 21/16 A2996 RMK A01 T02070161  RH  075%=      5-min Rain = 0
KLE1 181021Z 09006KT 21/16 A2996 RMK A01 T02070161  RH  075%=      5-min Rain = 0
KLE1 181022Z 08005KT 21/16 A2996 RMK A01 T02060161  RH  075%=      5-min Rain = 0
KLE1 181023Z 08005KT 21/16 A2996 RMK A01 T02060161  RH  075%=      5-min Rain = 0
KLE1 181024Z 08005KT 21/16 A2996 RMK A01 T02050161  RH  076%=      5-min Rain = 0
KLE1 181025Z 09005KT 21/16 A2996 RMK A01 T02050162  RH  076%=      5-min Rain = 0
KLE1 181026Z 09005KT 21/16 A2996 RMK A01 T02060162  RH  076%=      5-min Rain = 0
KLE1 181027Z 09005KT 21/16 A2996 RMK A01 T02050162  RH  076%=      5-min Rain = 0
KLE1 181028Z 09005KT 21/16 A2996 RMK A01 T02050162  RH  076%=      5-min Rain = 0
KLE1 181029Z 09005KT 21/16 A2996 RMK A01 T02050162  RH  076%=      5-min Rain = 0
KLE1 181030Z 09005KT 21/16 A2996 RMK A01 T02050162  RH  076%=      5-min Rain = 0
KLE1 181031Z 10005KT 21/16 A2996 RMK A01 T02050163  RH  077%=      5-min Rain = 0
KLE1 181032Z 09005KT 21/16 A2996 RMK A01 T02050163  RH  077%=      5-min Rain = 0
KLE1 181033Z 09005KT 21/16 A2996 RMK A01 T02050163  RH  077%=      5-min Rain = 0
KLE1 181034Z 10005KT 20/16 A2996 RMK A01 T02040162  RH  077%=      5-min Rain = 0
KLE1 181035Z 10006KT 20/16 A2996 RMK A01 T02040162  RH  077%=      5-min Rain = 0
KLE1 181036Z 09006KT 20/16 A2996 RMK A01 T02040163  RH  077%=      5-min Rain = 0
KLE1 181037Z 09006KT 20/16 A2996 RMK A01 T02040162  RH  077%=      5-min Rain = 0
KLE1 181038Z 09006KT 20/16 A2996 RMK A01 T02030162  RH  077%=      5-min Rain = 0
KLE1 181039Z 09006KT 20/16 A2996 RMK A01 T02030162  RH  077%=      5-min Rain = 0
KLE1 181040Z 10005KT 20/16 A2996 RMK A01 T02030162  RH  077%=      5-min Rain = 0
KLE1 181041Z 09005KT 20/16 A2996 RMK A01 T02020162  RH  077%=      5-min Rain = 0
KLE1 181042Z 09005KT 20/16 A2996 RMK A01 T02030162  RH  078%=      5-min Rain = 0
KLE1 181043Z 09005KT 20/16 A2996 RMK A01 T02020162  RH  078%=      5-min Rain = 0
KLE1 181044Z 09005KT 20/16 A2996 RMK A01 T02020162  RH  078%=      5-min Rain = 0
KLE1 181045Z 08005KT 20/16 A2996 RMK A01 T02020162  RH  078%=      5-min Rain = 0
KLE1 181046Z 08005KT 20/16 A2996 RMK A01 T02020163  RH  078%=      5-min Rain = 0
KLE1 181047Z 08005KT 20/16 A2996 RMK A01 T02010162  RH  078%=      5-min Rain = 0
KLE1 181048Z 07005KT 20/16 A2996 RMK A01 T02010162  RH  078%=      5-min Rain = 0
KLE1 181049Z 07005KT 20/16 A2996 RMK A01 T02010162  RH  078%=      5-min Rain = 0
KLE1 181050Z 07005KT 20/16 A2996 RMK A01 T02010162  RH  078%=      5-min Rain = 0
KLE1 181051Z 07005KT 20/16 A2996 RMK A01 T02020163  RH  078%=      5-min Rain = 0
KLE1 181052Z 07006KT 20/16 A2996 RMK A01 T02020163  RH  078%=      5-min Rain = 0
KLE1 181053Z 07006KT 20/16 A2996 RMK A01 T02020164  RH  078%=      5-min Rain = 0
KLE1 181054Z 07006KT 20/16 A2996 RMK A01 T02020163  RH  078%=      5-min Rain = 0
KLE1 181055Z 07006KT 20/16 A2996 RMK A01 T02030163  RH  078%=      5-min Rain = 0
KLE1 181056Z 07006KT 20/16 A2996 RMK A01 T02020163  RH  078%=      5-min Rain = 0
KLE1 181057Z 08006KT 20/16 A2996 RMK A01 T02020163  RH  078%=      5-min Rain = 0
KLE1 181058Z 08006KT 20/16 A2996 RMK A01 T02020164  RH  079%=      5-min Rain = 0
KLE1 181059Z 08006KT 20/16 A2996 RMK A01 T02020164  RH  079%=      5-min Rain = 0
KLE1 181100Z 09005KT 20/17 A2996 RMK A01 T02030165  RH  079%=      5-min Rain = 0
KLE1 181101Z 08006KT 20/17 A2996 RMK A01 T02030165  RH  078%=      5-min Rain = 0
KLE1 181102Z 09005KT 20/16 A2996 RMK A01 T02040164  RH  078%=      5-min Rain = 0
KLE1 181103Z 09005KT 20/16 A2996 RMK A01 T02030164  RH  078%=      5-min Rain = 0
KLE1 181104Z 09006KT 20/17 A2996 RMK A01 T02030165  RH  079%=      5-min Rain = 0
KLE1 181105Z 09006KT 20/16 A2996 RMK A01 T02020164  RH  079%=      5-min Rain = 0
KLE1 181106Z 09006KT 20/16 A2996 RMK A01 T02020164  RH  079%=      5-min Rain = 0
KLE1 181107Z 09006KT 20/16 A2996 RMK A01 T02020164  RH  079%=      5-min Rain = 0
KLE1 181108Z 09006KT 20/16 A2997 RMK A01 T02010164  RH  079%=      5-min Rain = 0
KLE1 181109Z 09006KT 20/16 A2997 RMK A01 T02010164  RH  079%=      5-min Rain = 0
KLE1 181110Z 08006KT 20/16 A2997 RMK A01 T02010164  RH  079%=      5-min Rain = 0
KLE1 181111Z 08006KT 20/16 A2997 RMK A01 T02010164  RH  079%=      5-min Rain = 0
KLE1 181112Z 08006KT 20/16 A2997 RMK A01 T02000164  RH  079%=      5-min Rain = 0
KLE1 181113Z 08006KT 20/16 A2997 RMK A01 T02000164  RH  080%=      5-min Rain = 0
KLE1 181114Z 08006KT 20/16 A2997 RMK A01 T02000164  RH  080%=      5-min Rain = 0
KLE1 181115Z 09006KT 20/16 A2997 RMK A01 T02000164  RH  080%=      5-min Rain = 0
KLE1 181116Z 09006KT 20/16 A2997 RMK A01 T02000164  RH  079%=      5-min Rain = 0
KLE1 181117Z 09006KT 20/16 A2997 RMK A01 T02010164  RH  079%=      5-min Rain = 0
KLE1 181118Z 09006KT 20/16 A2997 RMK A01 T02010164  RH  079%=      5-min Rain = 0
KLE1 181119Z 08007KT 20/16 A2997 RMK A01 T02010164  RH  079%=      5-min Rain = 0
KLE1 181120Z 08006KT 20/16 A2997 RMK A01 T02010164  RH  079%=      5-min Rain = 0
KLE1 181121Z 08006KT 20/16 A2997 RMK A01 T02010164  RH  079%=      5-min Rain = 0
KLE1 181122Z 08006KT 20/16 A2997 RMK A01 T02010164  RH  079%=      5-min Rain = 0
KLE1 181123Z 08006KT 20/17 A2997 RMK A01 T02010165  RH  080%=      5-min Rain = 0
KLE1 181124Z 09006KT 20/17 A2997 RMK A01 T02010165  RH  080%=      5-min Rain = 0
KLE1 181125Z 09006KT 20/16 A2997 RMK A01 T02010164  RH  080%=      5-min Rain = 0
KLE1 181126Z 09006KT 20/17 A2997 RMK A01 T02000165  RH  080%=      5-min Rain = 0
KLE1 181127Z 09006KT 20/16 A2997 RMK A01 T02000164  RH  080%=      5-min Rain = 0
KLE1 181128Z 09006KT 20/17 A2997 RMK A01 T02000165  RH  080%=      5-min Rain = 0
KLE1 181129Z 09006KT 20/17 A2997 RMK A01 T01990165  RH  080%=      5-min Rain = 0
KLE1 181130Z 09005KT 20/16 A2997 RMK A01 T01990164  RH  080%=      5-min Rain = 0
KLE1 181131Z 09005KT 20/17 A2997 RMK A01 T01990165  RH  080%=      5-min Rain = 0
KLE1 181132Z 09005KT 20/16 A2997 RMK A01 T01990164  RH  080%=      5-min Rain = 0
KLE1 181133Z 10006KT 20/16 A2997 RMK A01 T01990164  RH  081%=      5-min Rain = 0
KLE1 181134Z 10006KT 20/16 A2997 RMK A01 T01990164  RH  081%=      5-min Rain = 0
KLE1 181135Z 10005KT 20/16 A2997 RMK A01 T01980164  RH  081%=      5-min Rain = 0
KLE1 181136Z 09005KT 20/16 A2997 RMK A01 T01990164  RH  080%=      5-min Rain = 0
KLE1 181137Z 09005KT 20/16 A2997 RMK A01 T01990164  RH  080%=      5-min Rain = 0
KLE1 181138Z 09004KT 20/16 A2997 RMK A01 T02000164  RH  080%=      5-min Rain = 0
KLE1 181139Z 09004KT 20/16 A2997 RMK A01 T01990164  RH  080%=      5-min Rain = 0
KLE1 181140Z 08004KT 20/16 A2997 RMK A01 T01990164  RH  080%=      5-min Rain = 0
KLE1 181141Z 08004KT 20/16 A2997 RMK A01 T01990164  RH  080%=      5-min Rain = 0
KLE1 181142Z 07005KT 20/16 A2997 RMK A01 T01990164  RH  080%=      5-min Rain = 0
KLE1 181143Z 07005KT 20/17 A2997 RMK A01 T01990165  RH  081%=      5-min Rain = 0
KLE1 181144Z 07005KT 20/17 A2997 RMK A01 T01990165  RH  081%=      5-min Rain = 0
KLE1 181145Z 07004KT 20/17 A2997 RMK A01 T01980165  RH  081%=      5-min Rain = 0
KLE1 181146Z 07004KT 20/17 A2997 RMK A01 T01990165  RH  081%=      5-min Rain = 0
KLE1 181147Z 07004KT 20/17 A2997 RMK A01 T01990165  RH  081%=      5-min Rain = 0
KLE1 181148Z 07004KT 20/17 A2997 RMK A01 T01980165  RH  081%=      5-min Rain = 0
KLE1 181149Z 07004KT 20/17 A2997 RMK A01 T01990165  RH  081%=      5-min Rain = 0
KLE1 181150Z 07005KT 20/17 A2997 RMK A01 T01990166  RH  081%=      5-min Rain = 0
KLE1 181151Z 07005KT 20/17 A2997 RMK A01 T01990166  RH  081%=      5-min Rain = 0
KLE1 181152Z 07005KT 20/17 A2997 RMK A01 T02000166  RH  081%=      5-min Rain = 0
KLE1 181153Z 07005KT 20/17 A2998 RMK A01 T01990166  RH  081%=      5-min Rain = 0
KLE1 181154Z 07005KT 20/17 A2998 RMK A01 T02000166  RH  081%=      5-min Rain = 0
KLE1 181155Z 08005KT 20/17 A2998 RMK A01 T02000166  RH  081%=      5-min Rain = 0
KLE1 181156Z 08005KT 20/17 A2998 RMK A01 T02000166  RH  081%=      5-min Rain = 0
KLE1 181157Z 08005KT 20/17 A2998 RMK A01 T02000166  RH  081%=      5-min Rain = 0
KLE1 181158Z 09005KT 20/17 A2998 RMK A01 T01990166  RH  081%=      5-min Rain = 0
KLE1 181159Z 09005KT 20/17 A2998 RMK A01 T01990166  RH  081%=      5-min Rain = 0
KLE1 181200Z 09005KT 20/17 A2998 RMK A01 T01990166  RH  081%=      5-min Rain = 0
KLE1 181201Z 09004KT 20/17 A2998 RMK A01 T01990165  RH  081%=      5-min Rain = 0
KLE1 181202Z 09004KT 20/17 A2998 RMK A01 T01980166  RH  081%=      5-min Rain = 0
KLE1 181203Z 09004KT 20/17 A2998 RMK A01 T01990166  RH  081%=      5-min Rain = 0
KLE1 181204Z 09004KT 20/17 A2998 RMK A01 T01980165  RH  081%=      5-min Rain = 0
KLE1 181205Z 09005KT 20/17 A2998 RMK A01 T01980165  RH  081%=      5-min Rain = 0
KLE1 181206Z 09004KT 20/17 A2998 RMK A01 T01980165  RH  081%=      5-min Rain = 0
KLE1 181207Z 09004KT 20/17 A2998 RMK A01 T01980165  RH  082%=      5-min Rain = 0
KLE1 181208Z 09005KT 20/17 A2998 RMK A01 T01970165  RH  082%=      5-min Rain = 0
KLE1 181209Z 09005KT 20/17 A2998 RMK A01 T01970165  RH  082%=      5-min Rain = 0
KLE1 181210Z 09005KT 20/17 A2998 RMK A01 T01970165  RH  082%=      5-min Rain = 0
KLE1 181211Z 09005KT 20/17 A2998 RMK A01 T01970165  RH  082%=      5-min Rain = 0
KLE1 181212Z 09005KT 20/17 A2998 RMK A01 T01970165  RH  082%=      5-min Rain = 0
KLE1 181213Z 09005KT 20/17 A2998 RMK A01 T01970165  RH  082%=      5-min Rain = 0
KLE1 181214Z 09004KT 20/17 A2998 RMK A01 T01970165  RH  082%=      5-min Rain = 0
KLE1 181215Z 08004KT 20/17 A2998 RMK A01 T01970165  RH  082%=      5-min Rain = 0
KLE1 181216Z 08005KT 20/17 A2998 RMK A01 T01970165  RH  082%=      5-min Rain = 0
KLE1 181217Z 08004KT 20/17 A2998 RMK A01 T01970165  RH  082%=      5-min Rain = 0
KLE1 181218Z 08004KT 20/17 A2998 RMK A01 T01970165  RH  082%=      5-min Rain = 0
KLE1 181219Z 08004KT 20/17 A2998 RMK A01 T01970165  RH  082%=      5-min Rain = 0
KLE1 181220Z 08004KT 20/17 A2998 RMK A01 T01970165  RH  082%=      5-min Rain = 0
KLE1 181221Z 07004KT 20/17 A2998 RMK A01 T01970165  RH  082%=      5-min Rain = 0
KLE1 181222Z 07004KT 20/17 A2998 RMK A01 T01970165  RH  082%=      5-min Rain = 0
KLE1 181223Z 07004KT 20/17 A2998 RMK A01 T01970165  RH  082%=      5-min Rain = 0
KLE1 181224Z 07004KT 20/17 A2998 RMK A01 T01970165  RH  082%=      5-min Rain = 0
KLE1 181225Z 07004KT 20/17 A2999 RMK A01 T01960166  RH  082%=      5-min Rain = 0
KLE1 181226Z 07004KT 20/17 A2999 RMK A01 T01960166  RH  083%=      5-min Rain = 0
KLE1 181227Z 07004KT 20/17 A2999 RMK A01 T01960166  RH  083%=      5-min Rain = 0
KLE1 181228Z 07004KT 20/17 A2999 RMK A01 T01960166  RH  083%=      5-min Rain = 0
KLE1 181229Z 07004KT 20/17 A2999 RMK A01 T01960166  RH  083%=      5-min Rain = 0
KLE1 181230Z 07004KT 20/17 A2999 RMK A01 T01960166  RH  083%=      5-min Rain = 0
KLE1 181231Z 07004KT 20/17 A2999 RMK A01 T01970167  RH  083%=      5-min Rain = 0
KLE1 181232Z 07004KT 20/17 A2999 RMK A01 T01970167  RH  083%=      5-min Rain = 0
KLE1 181233Z 08004KT 20/17 A2999 RMK A01 T01980167  RH  082%=      5-min Rain = 0
KLE1 181234Z 08005KT 20/17 A2999 RMK A01 T01980167  RH  082%=      5-min Rain = 0
KLE1 181235Z 08005KT 20/17 A2999 RMK A01 T01980167  RH  082%=      5-min Rain = 0
KLE1 181236Z 08005KT 20/17 A2999 RMK A01 T01990167  RH  082%=      5-min Rain = 0
KLE1 181237Z 08005KT 20/17 A2999 RMK A01 T01990168  RH  082%=      5-min Rain = 0
KLE1 181238Z 08005KT 20/17 A2999 RMK A01 T01990167  RH  082%=      5-min Rain = 0
KLE1 181239Z 08006KT 20/17 A2999 RMK A01 T01990168  RH  082%=      5-min Rain = 0
KLE1 181240Z 08005KT 20/17 A2999 RMK A01 T01980167  RH  082%=      5-min Rain = 0
KLE1 181241Z 08005KT 20/17 A2999 RMK A01 T01980167  RH  083%=      5-min Rain = 0
KLE1 181242Z 08005KT 20/17 A2999 RMK A01 T01980167  RH  083%=      5-min Rain = 0
KLE1 181243Z 08005KT 20/17 A2999 RMK A01 T01970167  RH  083%=      5-min Rain = 0
KLE1 181244Z 07005KT 20/17 A2999 RMK A01 T01970167  RH  083%=      5-min Rain = 0
KLE1 181245Z 07005KT 20/17 A2999 RMK A01 T01970167  RH  083%=      5-min Rain = 0
KLE1 181246Z 07005KT 20/17 A2999 RMK A01 T01970167  RH  083%=      5-min Rain = 0
KLE1 181247Z 07005KT 20/17 A2999 RMK A01 T01970167  RH  083%=      5-min Rain = 0
KLE1 181248Z 07005KT 20/17 A2999 RMK A01 T01980168  RH  083%=      5-min Rain = 0
KLE1 181249Z 06004KT 20/17 A2999 RMK A01 T01990169  RH  083%=      5-min Rain = 0
KLE1 181250Z 06004KT 20/17 A2999 RMK A01 T02000169  RH  082%=      5-min Rain = 0
KLE1 181251Z 07004KT 20/17 A2999 RMK A01 T02000169  RH  082%=      5-min Rain = 0
KLE1 181252Z 06004KT 20/17 A2999 RMK A01 T02000169  RH  082%=      5-min Rain = 0
KLE1 181253Z 06005KT 20/17 A2999 RMK A01 T02010169  RH  082%=      5-min Rain = 0
KLE1 181254Z 07005KT 20/17 A2999 RMK A01 T02010169  RH  082%=      5-min Rain = 0
KLE1 181255Z 07005KT 20/17 A2999 RMK A01 T02020169  RH  082%=      5-min Rain = 0
KLE1 181256Z 07005KT 20/17 A2999 RMK A01 T02020170  RH  082%=      5-min Rain = 0
KLE1 181257Z 07005KT 20/17 A2999 RMK A01 T02020170  RH  082%=      5-min Rain = 0
KLE1 181258Z 07004KT 20/17 A2999 RMK A01 T02030170  RH  082%=      5-min Rain = 0
KLE1 181259Z 07004KT 20/17 A2999 RMK A01 T02030170  RH  082%=      5-min Rain = 0
KLE1 181300Z 07005KT 20/17 A2999 RMK A01 T02030171  RH  081%=      5-min Rain = 0
KLE1 181301Z 07005KT 20/17 A2999 RMK A01 T02030171  RH  081%=      5-min Rain = 0
KLE1 181302Z 07005KT 20/17 A2999 RMK A01 T02040171  RH  081%=      5-min Rain = 0
KLE1 181303Z 07005KT 21/17 A2999 RMK A01 T02050172  RH  081%=      5-min Rain = 0
KLE1 181304Z 07005KT 21/17 A2999 RMK A01 T02050172  RH  081%=      5-min Rain = 0
KLE1 181305Z 07005KT 21/17 A2999 RMK A01 T02060172  RH  081%=      5-min Rain = 0
KLE1 181306Z 08005KT 21/17 A30 RMK A01 T02070172  RH  081%=      5-min Rain = 0
KLE1 181307Z 08005KT 21/17 A30 RMK A01 T02070172  RH  080%=      5-min Rain = 0
KLE1 181308Z 08005KT 21/17 A30 RMK A01 T02070172  RH  080%=      5-min Rain = 0
KLE1 181309Z 08005KT 21/17 A30 RMK A01 T02080173  RH  080%=      5-min Rain = 0
KLE1 181310Z 08005KT 21/17 A30 RMK A01 T02090173  RH  080%=      5-min Rain = 0
KLE1 181311Z 08005KT 21/17 A30 RMK A01 T02090173  RH  080%=      5-min Rain = 0
KLE1 181312Z 08005KT 21/17 A30 RMK A01 T02100173  RH  080%=      5-min Rain = 0
KLE1 181313Z 08005KT 21/17 A30 RMK A01 T02100173  RH  079%=      5-min Rain = 0
KLE1 181314Z 08005KT 21/17 A30 RMK A01 T02100173  RH  079%=      5-min Rain = 0
KLE1 181315Z 08005KT 21/17 A30 RMK A01 T02110174  RH  079%=      5-min Rain = 0
KLE1 181316Z 08005KT 21/17 A30 RMK A01 T02120174  RH  079%=      5-min Rain = 0
KLE1 181317Z 08005KT 21/17 A30 RMK A01 T02120174  RH  079%=      5-min Rain = 0
KLE1 181318Z 08006KT 21/17 A30 RMK A01 T02130174  RH  079%=      5-min Rain = 0
KLE1 181319Z 08006KT 21/18 A30 RMK A01 T02130175  RH  078%=      5-min Rain = 0
KLE1 181320Z 08006KT 21/18 A30 RMK A01 T02140175  RH  078%=      5-min Rain = 0
KLE1 181321Z 08005KT 22/18 A30 RMK A01 T02150175  RH  078%=      5-min Rain = 0
KLE1 181322Z 08005KT 22/18 A30 RMK A01 T02150175  RH  078%=      5-min Rain = 0
KLE1 181323Z 09005KT 22/18 A30 RMK A01 T02160176  RH  078%=      5-min Rain = 0
KLE1 181324Z 08005KT 22/18 A30 RMK A01 T02160175  RH  077%=      5-min Rain = 0
KLE1 181325Z 09005KT 22/18 A30 RMK A01 T02160175  RH  077%=      5-min Rain = 0
KLE1 181326Z 09006KT 22/18 A30 RMK A01 T02160176  RH  078%=      5-min Rain = 0
KLE1 181327Z 09005KT 22/18 A30 RMK A01 T02170175  RH  077%=      5-min Rain = 0
KLE1 181328Z 09005KT 22/18 A30 RMK A01 T02170176  RH  077%=      5-min Rain = 0
KLE1 181329Z 09005KT 22/18 A30 RMK A01 T02180176  RH  077%=      5-min Rain = 0
KLE1 181330Z 09006KT 22/18 A30 RMK A01 T02180176  RH  077%=      5-min Rain = 0
KLE1 181331Z 09005KT 22/18 A30 RMK A01 T02190176  RH  077%=      5-min Rain = 0
KLE1 181332Z 09005KT 22/18 A30 RMK A01 T02200176  RH  076%=      5-min Rain = 0
KLE1 181333Z 09005KT 22/18 A30 RMK A01 T02210177  RH  076%=      5-min Rain = 0
KLE1 181334Z 09005KT 22/18 A30 RMK A01 T02210177  RH  076%=      5-min Rain = 0
KLE1 181335Z 09006KT 22/18 A30 RMK A01 T02220177  RH  076%=      5-min Rain = 0
KLE1 181336Z 10005KT 22/18 A30 RMK A01 T02230177  RH  075%=      5-min Rain = 0
KLE1 181337Z 10004KT 22/18 A30 RMK A01 T02230177  RH  075%=      5-min Rain = 0
KLE1 181338Z 10005KT 22/18 A30 RMK A01 T02240177  RH  075%=      5-min Rain = 0
KLE1 181339Z 09005KT 22/18 A30 RMK A01 T02240177  RH  075%=      5-min Rain = 0
KLE1 181340Z 10005KT 22/18 A30 RMK A01 T02240177  RH  075%=      5-min Rain = 0
KLE1 181341Z 11005KT 23/18 A30 RMK A01 T02250177  RH  074%=      5-min Rain = 0
KLE1 181342Z 10005KT 23/18 A30 RMK A01 T02260177  RH  074%=      5-min Rain = 0
KLE1 181343Z 11005KT 23/18 A30 RMK A01 T02260177  RH  074%=      5-min Rain = 0
KLE1 181344Z 11005KT 23/18 A30 RMK A01 T02270176  RH  073%=      5-min Rain = 0
KLE1 181345Z 11005KT 23/18 A30 RMK A01 T02270177  RH  073%=      5-min Rain = 0
KLE1 181346Z 12005KT 23/18 A30 RMK A01 T02280177  RH  073%=      5-min Rain = 0
KLE1 181347Z 11005KT 23/18 A30 RMK A01 T02290178  RH  073%=      5-min Rain = 0
KLE1 181348Z 11006KT 23/18 A30 RMK A01 T02300178  RH  072%=      5-min Rain = 0
KLE1 181349Z 11005KT 23/18 A30 RMK A01 T02300178  RH  072%=      5-min Rain = 0
KLE1 181350Z 11006KT 23/18 A30 RMK A01 T02300178  RH  072%=      5-min Rain = 0
KLE1 181351Z 11006KT 23/18 A30 RMK A01 T02310178  RH  072%=      5-min Rain = 0
KLE1 181352Z 11007KT 23/18 A30 RMK A01 T02320178  RH  072%=      5-min Rain = 0
KLE1 181353Z 12007KT 23/18 A30 RMK A01 T02320178  RH  072%=      5-min Rain = 0
KLE1 181354Z 12007KT 23/18 A30 RMK A01 T02320178  RH  072%=      5-min Rain = 0
KLE1 181355Z 11007KT 23/18 A30 RMK A01 T02310178  RH  072%=      5-min Rain = 0
KLE1 181356Z 12006KT 23/18 A30 RMK A01 T02310177  RH  072%=      5-min Rain = 0
KLE1 181357Z 12006KT 23/18 A30 RMK A01 T02300177  RH  072%=      5-min Rain = 0
KLE1 181358Z 12006KT 23/18 A30 RMK A01 T02300178  RH  072%=      5-min Rain = 0
KLE1 181359Z 13006KT 23/18 A30 RMK A01 T02310178  RH  072%=      5-min Rain = 0
KLE1 181400Z 12006KT 23/18 A30 RMK A01 T02330178  RH  071%=      5-min Rain = 0
KLE1 181401Z 11006KT 23/18 A30 RMK A01 T02340177  RH  070%=      5-min Rain = 0
KLE1 181402Z 12005KT 24/18 A30 RMK A01 T02350177  RH  070%=      5-min Rain = 0
KLE1 181403Z 12005KT 24/18 A30 RMK A01 T02350177  RH  070%=      5-min Rain = 0
KLE1 181404Z 12006KT 24/18 A30 RMK A01 T02350178  RH  070%=      5-min Rain = 0
KLE1 181405Z 12005KT 24/18 A30 RMK A01 T02350177  RH  070%=      5-min Rain = 0
KLE1 181406Z 12006KT 24/18 A30 RMK A01 T02350177  RH  070%=      5-min Rain = 0
KLE1 181407Z 11005KT 24/18 A30 RMK A01 T02350177  RH  070%=      5-min Rain = 0
KLE1 181408Z 12005KT 24/18 A30 RMK A01 T02360178  RH  070%=      5-min Rain = 0
KLE1 181409Z 13005KT 24/18 A30 RMK A01 T02370178  RH  069%=      5-min Rain = 0
KLE1 181410Z 13005KT 24/18 A30 RMK A01 T02390178  RH  069%=      5-min Rain = 0
KLE1 181411Z 11005KT 24/18 A30 RMK A01 T02390178  RH  069%=      5-min Rain = 0
KLE1 181412Z 11004KT 24/18 A30 RMK A01 T02380179  RH  069%=      5-min Rain = 0
KLE1 181413Z 13005KT 24/18 A30 RMK A01 T02380178  RH  069%=      5-min Rain = 0
KLE1 181414Z 12004KT 24/18 A30 RMK A01 T02370178  RH  069%=      5-min Rain = 0
KLE1 181415Z 11005KT 24/18 A30 RMK A01 T02380179  RH  070%=      5-min Rain = 0
KLE1 181416Z 11005KT 24/18 A30 RMK A01 T02390179  RH  069%=      5-min Rain = 0
KLE1 181417Z 12005KT 24/18 A30 RMK A01 T02390179  RH  069%=      5-min Rain = 0
KLE1 181418Z 13006KT 24/18 A30 RMK A01 T02400179  RH  069%=      5-min Rain = 0
KLE1 181419Z 13005KT 24/18 A30 RMK A01 T02410180  RH  069%=      5-min Rain = 0
KLE1 181420Z 12005KT 24/18 A30 RMK A01 T02420179  RH  068%=      5-min Rain = 0
KLE1 181421Z 12005KT 24/18 A30 RMK A01 T02430179  RH  067%=      5-min Rain = 0
KLE1 181422Z 13006KT 24/18 A30 RMK A01 T02420179  RH  068%=      5-min Rain = 0
KLE1 181423Z 13006KT 24/18 A30 RMK A01 T02420180  RH  068%=      5-min Rain = 0
KLE1 181424Z 13005KT 24/18 A30 RMK A01 T02430179  RH  067%=      5-min Rain = 0
KLE1 181425Z 12006KT 24/18 A30 RMK A01 T02440179  RH  067%=      5-min Rain = 0
KLE1 181426Z 13006KT 24/18 A30 RMK A01 T02440179  RH  067%=      5-min Rain = 0
KLE1 181427Z 14005KT 24/18 A30 RMK A01 T02440179  RH  067%=      5-min Rain = 0
KLE1 181428Z 12004KT 24/18 A30 RMK A01 T02440179  RH  067%=      5-min Rain = 0
KLE1 181429Z 12005KT 24/18 A30 RMK A01 T02440179  RH  067%=      5-min Rain = 0
KLE1 181430Z 12006KT 25/18 A30 RMK A01 T02450179  RH  067%=      5-min Rain = 0
KLE1 181431Z 13005KT 25/18 A30 RMK A01 T02460179  RH  066%=      5-min Rain = 0
KLE1 181432Z 13004KT 25/18 A30 RMK A01 T02460180  RH  067%=      5-min Rain = 0
KLE1 181433Z 14005KT 25/18 A30 RMK A01 T02480181  RH  066%=      5-min Rain = 0
KLE1 181434Z 13005KT 25/18 A30 RMK A01 T02490180  RH  066%=      5-min Rain = 0
KLE1 181435Z 12006KT 25/18 A30 RMK A01 T02490180  RH  066%=      5-min Rain = 0
KLE1 181436Z 12005KT 25/18 A30 RMK A01 T02490180  RH  065%=      5-min Rain = 0
KLE1 181437Z 10005KT 25/18 A30 RMK A01 T02490180  RH  066%=      5-min Rain = 0
KLE1 181438Z 11004KT 25/18 A30 RMK A01 T02490180  RH  066%=      5-min Rain = 0
KLE1 181439Z 12005KT 25/18 A30 RMK A01 T02510182  RH  065%=      5-min Rain = 0
KLE1 181440Z 13005KT 25/18 A30 RMK A01 T02540182  RH  064%=      5-min Rain = 0
KLE1 181441Z 13006KT 25/18 A30 RMK A01 T02540182  RH  064%=      5-min Rain = 0
KLE1 181442Z 13005KT 25/18 A30 RMK A01 T02530182  RH  064%=      5-min Rain = 0
KLE1 181443Z 12005KT 25/18 A30 RMK A01 T02520181  RH  065%=      5-min Rain = 0
KLE1 181444Z 13006KT 25/18 A30 RMK A01 T02520181  RH  065%=      5-min Rain = 0
KLE1 181445Z 13006KT 25/18 A30 RMK A01 T02530182  RH  065%=      5-min Rain = 0
KLE1 181446Z 13004KT 25/18 A30 RMK A01 T02540181  RH  064%=      5-min Rain = 0
KLE1 181447Z 13005KT 25/18 A30 RMK A01 T02540181  RH  064%=      5-min Rain = 0
KLE1 181448Z 12006KT 26/18 A30 RMK A01 T02570181  RH  063%=      5-min Rain = 0
KLE1 181449Z 14005KT 26/18 A30 RMK A01 T02560180  RH  063%=      5-min Rain = 0
KLE1 181450Z 13004KT 25/18 A30 RMK A01 T02540181  RH  064%=      5-min Rain = 0
KLE1 181451Z 13005KT 26/18 A30 RMK A01 T02550182  RH  064%=      5-min Rain = 0
KLE1 181452Z 12005KT 26/18 A30 RMK A01 T02570182  RH  063%=      5-min Rain = 0
KLE1 181453Z 11006KT 26/18 A30 RMK A01 T02580183  RH  063%=      5-min Rain = 0
KLE1 181454Z 13006KT 26/18 A30 RMK A01 T02580182  RH  063%=      5-min Rain = 0
KLE1 181455Z 14006KT 26/18 A30 RMK A01 T02570180  RH  062%=      5-min Rain = 0
KLE1 181456Z 14005KT 26/18 A30 RMK A01 T02560180  RH  063%=      5-min Rain = 0
KLE1 181457Z 14005KT 26/18 A30 RMK A01 T02570180  RH  062%=      5-min Rain = 0
KLE1 181458Z 14007KT 26/18 A30 RMK A01 T02580181  RH  062%=      5-min Rain = 0
KLE1 181459Z 14006KT 26/18 A30 RMK A01 T02580181  RH  062%=      5-min Rain = 0
KLE1 181500Z 13004KT 26/18 A30 RMK A01 T02590181  RH  062%=      5-min Rain = 0
KLE1 181501Z 13003KT 26/18 A30 RMK A01 T02600180  RH  061%=      5-min Rain = 0
KLE1 181502Z 12003KT 26/18 A30 RMK A01 T02600181  RH  062%=      5-min Rain = 0
KLE1 181503Z 11002KT 26/18 A30 RMK A01 T02610182  RH  062%=      5-min Rain = 0
KLE1 181504Z 15004KT 26/18 A30 RMK A01 T02620182  RH  061%=      5-min Rain = 0
KLE1 181505Z 13004KT 26/18 A30 RMK A01 T02630181  RH  061%=      5-min Rain = 0
KLE1 181506Z 14004KT 26/18 A30 RMK A01 T02620181  RH  061%=      5-min Rain = 0
KLE1 181507Z 17004KT 26/18 A30 RMK A01 T02620181  RH  061%=      5-min Rain = 0
KLE1 181508Z 18003KT 26/18 A30 RMK A01 T02630181  RH  061%=      5-min Rain = 0
KLE1 181509Z 14006KT 26/18 A30 RMK A01 T02630182  RH  061%=      5-min Rain = 0
KLE1 181510Z 14007KT 26/18 A30 RMK A01 T02640181  RH  060%=      5-min Rain = 0
KLE1 181511Z 13006KT 27/18 A3001 RMK A01 T02650182  RH  060%=      5-min Rain = 0
KLE1 181512Z 14005KT 27/18 A3001 RMK A01 T02650181  RH  060%=      5-min Rain = 0
KLE1 181513Z 15004KT 27/18 A3001 RMK A01 T02650181  RH  060%=      5-min Rain = 0
KLE1 181514Z 17003KT 26/18 A3001 RMK A01 T02630181  RH  060%=      5-min Rain = 0
KLE1 181515Z 18004KT 26/18 A3001 RMK A01 T02630182  RH  061%=      5-min Rain = 0
KLE1 181516Z 17004KT 26/18 A3001 RMK A01 T02640182  RH  061%=      5-min Rain = 0
KLE1 181517Z 16005KT 27/18 A3001 RMK A01 T02660183  RH  060%=      5-min Rain = 0
KLE1 181518Z 16004KT 27/18 A3001 RMK A01 T02670182  RH  059%=      5-min Rain = 0
KLE1 181519Z 16003KT 27/18 A3001 RMK A01 T02670182  RH  060%=      5-min Rain = 0
KLE1 181520Z 18004KT 27/18 A3001 RMK A01 T02690184  RH  060%=      5-min Rain = 0
KLE1 181521Z 15003KT 27/19 A3001 RMK A01 T02710185  RH  059%=      5-min Rain = 0
KLE1 181522Z 18004KT 27/18 A3001 RMK A01 T02720183  RH  058%=      5-min Rain = 0
KLE1 181523Z 15005KT 27/18 A3001 RMK A01 T02720184  RH  059%=      5-min Rain = 0
KLE1 181524Z 13006KT 27/18 A3001 RMK A01 T02720183  RH  058%=      5-min Rain = 0
KLE1 181525Z 15006KT 27/18 A3001 RMK A01 T02710183  RH  059%=      5-min Rain = 0
KLE1 181526Z 15005KT 27/18 A3001 RMK A01 T02720184  RH  058%=      5-min Rain = 0
KLE1 181527Z 15003KT 27/18 A3001 RMK A01 T02730184  RH  058%=      5-min Rain = 0
KLE1 181528Z 16005KT 27/18 A3001 RMK A01 T02730184  RH  058%=      5-min Rain = 0
KLE1 181529Z 15006KT 27/18 A3001 RMK A01 T02740184  RH  058%=      5-min Rain = 0
KLE1 181530Z 15005KT 28/18 A3001 RMK A01 T02750183  RH  057%=      5-min Rain = 0
KLE1 181531Z 14006KT 28/18 A3001 RMK A01 T02750183  RH  057%=      5-min Rain = 0
KLE1 181532Z 16005KT 27/18 A3001 RMK A01 T02740183  RH  057%=      5-min Rain = 0
KLE1 181533Z 18005KT 28/18 A3001 RMK A01 T02750183  RH  057%=      5-min Rain = 0
KLE1 181534Z 17004KT 28/18 A3001 RMK A01 T02770183  RH  057%=      5-min Rain = 0
KLE1 181535Z 18003KT 28/18 A3001 RMK A01 T02780184  RH  057%=      5-min Rain = 0
KLE1 181536Z 16004KT 28/18 A3001 RMK A01 T02790184  RH  056%=      5-min Rain = 0
KLE1 181537Z 14005KT 28/18 A3001 RMK A01 T02800184  RH  056%=      5-min Rain = 0
KLE1 181538Z 15005KT 28/18 A3001 RMK A01 T02800183  RH  056%=      5-min Rain = 0
KLE1 181539Z 15006KT 28/18 A3001 RMK A01 T02800183  RH  056%=      5-min Rain = 0
KLE1 181540Z 16004KT 28/18 A3001 RMK A01 T02790183  RH  056%=      5-min Rain = 0
KLE1 181541Z 14004KT 28/18 A3001 RMK A01 T02780183  RH  056%=      5-min Rain = 0
KLE1 181542Z 13006KT 28/18 A3001 RMK A01 T02790184  RH  056%=      5-min Rain = 0
KLE1 181543Z 13005KT 28/18 A3001 RMK A01 T02800184  RH  056%=      5-min Rain = 0
KLE1 181544Z 12006KT 28/18 A3001 RMK A01 T02810184  RH  056%=      5-min Rain = 0
KLE1 181545Z 12006KT 28/18 A3001 RMK A01 T02820183  RH  055%=      5-min Rain = 0
KLE1 181546Z 15006KT 28/18 A3001 RMK A01 T02810183  RH  055%=      5-min Rain = 0
KLE1 181547Z 15006KT 28/18 A3001 RMK A01 T02800183  RH  056%=      5-min Rain = 0
KLE1 181548Z 15006KT 28/18 A30 RMK A01 T02790183  RH  056%=      5-min Rain = 0
KLE1 181549Z 17006KT 28/18 A30 RMK A01 T02780184  RH  056%=      5-min Rain = 0
KLE1 181550Z 15006KT 28/18 A30 RMK A01 T02790184  RH  056%=      5-min Rain = 0
KLE1 181551Z 15005KT 28/18 A30 RMK A01 T02790184  RH  056%=      5-min Rain = 0
KLE1 181552Z 14005KT 28/19 A30 RMK A01 T02790185  RH  056%=      5-min Rain = 0
KLE1 181553Z 15006KT 28/19 A30 RMK A01 T02820185  RH  056%=      5-min Rain = 0
KLE1 181554Z 16005KT 28/19 A30 RMK A01 T02840185  RH  055%=      5-min Rain = 0
KLE1 181555Z 16005KT 29/19 A30 RMK A01 T02850185  RH  055%=      5-min Rain = 0
KLE1 181556Z 16006KT 29/19 A30 RMK A01 T02860185  RH  054%=      5-min Rain = 0
KLE1 181557Z 16005KT 29/19 A30 RMK A01 T02860185  RH  055%=      5-min Rain = 0
KLE1 181558Z 13004KT 29/19 A30 RMK A01 T02880186  RH  054%=      5-min Rain = 0
KLE1 181559Z 13006KT 29/19 A30 RMK A01 T02910186  RH  053%=      5-min Rain = 0
KLE1 181600Z 17004KT 29/19 A30 RMK A01 T02920185  RH  053%=      5-min Rain = 0
KLE1 181601Z 16003KT 29/19 A30 RMK A01 T02900185  RH  053%=      5-min Rain = 0
KLE1 181602Z 13006KT 29/19 A30 RMK A01 T02910186  RH  053%=      5-min Rain = 0
KLE1 181603Z 14006KT 29/19 A30 RMK A01 T02930187  RH  053%=      5-min Rain = 0
KLE1 181604Z 16006KT 29/19 A30 RMK A01 T02940186  RH  052%=      5-min Rain = 0
KLE1 181605Z 14005KT 29/19 A30 RMK A01 T02940185  RH  052%=      5-min Rain = 0
KLE1 181606Z 17004KT 29/18 A30 RMK A01 T02940184  RH  052%=      5-min Rain = 0
KLE1 181607Z 16004KT 29/18 A30 RMK A01 T02940184  RH  052%=      5-min Rain = 0
KLE1 181608Z 16003KT 29/18 A30 RMK A01 T02930184  RH  052%=      5-min Rain = 0
KLE1 181609Z 14004KT 29/19 A30 RMK A01 T02930185  RH  052%=      5-min Rain = 0
KLE1 181610Z 15005KT 30/19 A30 RMK A01 T02950186  RH  052%=      5-min Rain = 0
KLE1 181611Z 16004KT 30/18 A30 RMK A01 T02980183  RH  050%=      5-min Rain = 0
KLE1 181612Z 16004KT 30/18 A30 RMK A01 T02970183  RH  051%=      5-min Rain = 0
KLE1 181613Z 17006KT 30/18 A30 RMK A01 T02970183  RH  050%=      5-min Rain = 0
KLE1 181614Z 15008KT 30/18 A30 RMK A01 T02970182  RH  050%=      5-min Rain = 0
KLE1 181615Z 16006KT 30/18 A30 RMK A01 T02990182  RH  050%=      5-min Rain = 0
KLE1 181616Z 15006KT 30/18 A30 RMK A01 T03000182  RH  049%=      5-min Rain = 0
KLE1 181617Z 16006KT 30/18 A30 RMK A01 T03000182  RH  049%=      5-min Rain = 0
KLE1 181618Z 18008KT 30/18 A30 RMK A01 T03020184  RH  049%=      5-min Rain = 0
KLE1 181619Z 16007KT 31/18 A30 RMK A01 T03080184  RH  048%=      5-min Rain = 0
KLE1 181620Z 18008KT 31/18 A30 RMK A01 T03100183  RH  047%=      5-min Rain = 0
KLE1 181621Z 19006KT 31/18 A30 RMK A01 T03100182  RH  046%=      5-min Rain = 0
KLE1 181622Z 19006KT 31/18 A30 RMK A01 T03090183  RH  047%=      5-min Rain = 0
KLE1 181623Z 18007KT 31/18 A30 RMK A01 T03090183  RH  047%=      5-min Rain = 0
KLE1 181624Z 16007KT 31/18 A30 RMK A01 T03090183  RH  047%=      5-min Rain = 0
KLE1 181625Z 16009KT 31/18 A30 RMK A01 T03080183  RH  047%=      5-min Rain = 0
KLE1 181626Z 15008KT 31/18 A30 RMK A01 T03070183  RH  048%=      5-min Rain = 0
KLE1 181627Z 15007KT 31/18 A30 RMK A01 T03060182  RH  048%=      5-min Rain = 0
KLE1 181628Z 14005KT 31/18 A30 RMK A01 T03050182  RH  048%=      5-min Rain = 0
KLE1 181629Z 14009KT 31/18 A30 RMK A01 T03070183  RH  048%=      5-min Rain = 0
KLE1 181630Z 16008KT 31/18 A30 RMK A01 T03090181  RH  046%=      5-min Rain = 0
KLE1 181631Z 15007KT 31/18 A30 RMK A01 T03100182  RH  046%=      5-min Rain = 0
KLE1 181632Z 14007KT 31/18 A30 RMK A01 T03110182  RH  046%=      5-min Rain = 0
KLE1 181633Z 15008KT 31/18 A30 RMK A01 T03110183  RH  046%=      5-min Rain = 0
KLE1 181634Z 15011KT 31/18 A30 RMK A01 T03120184  RH  046%=      5-min Rain = 0
KLE1 181635Z 15009KT 31/18 A30 RMK A01 T03130183  RH  046%=      5-min Rain = 0
KLE1 181636Z 15009KT 31/18 A30 RMK A01 T03120182  RH  046%=      5-min Rain = 0
KLE1 181637Z 14008KT 31/18 A30 RMK A01 T03100182  RH  046%=      5-min Rain = 0
KLE1 181638Z 15009KT 31/18 A30 RMK A01 T03100182  RH  046%=      5-min Rain = 0
KLE1 181639Z 13008KT 31/18 A30 RMK A01 T03120182  RH  046%=      5-min Rain = 0
KLE1 181640Z 14005KT 31/18 A30 RMK A01 T03130183  RH  046%=      5-min Rain = 0
KLE1 181641Z 15007G12KT 32/18 A30 RMK A01 T03150183  RH  045%=      5-min Rain = 0
KLE1 181642Z 16010KT 32/18 A30 RMK A01 T03160181  RH  045%=      5-min Rain = 0
KLE1 181643Z 16009KT 32/18 A30 RMK A01 T03200182  RH  044%=      5-min Rain = 0
KLE1 181644Z 17009KT 32/18 A30 RMK A01 T03210181  RH  043%=      5-min Rain = 0
KLE1 181645Z 17009KT 32/18 A30 RMK A01 T03190180  RH  043%=      5-min Rain = 0
KLE1 181646Z 17008KT 32/18 A30 RMK A01 T03170179  RH  044%=      5-min Rain = 0
KLE1 181647Z 14010KT 32/18 A30 RMK A01 T03160179  RH  044%=      5-min Rain = 0
KLE1 181648Z 15012KT 32/18 A30 RMK A01 T03170178  RH  044%=      5-min Rain = 0
KLE1 181649Z 16011KT 32/18 A30 RMK A01 T03180179  RH  043%=      5-min Rain = 0
KLE1 181650Z 17010KT 32/18 A30 RMK A01 T03200179  RH  043%=      5-min Rain = 0
KLE1 181651Z 16008KT 32/18 A30 RMK A01 T03210179  RH  043%=      5-min Rain = 0
KLE1 181652Z 19010KT 32/18 A30 RMK A01 T03210178  RH  043%=      5-min Rain = 0
KLE1 181653Z 15010KT 32/18 A30 RMK A01 T03200179  RH  043%=      5-min Rain = 0
KLE1 181654Z 15008KT 32/18 A30 RMK A01 T03200180  RH  044%=      5-min Rain = 0
KLE1 181655Z 14009KT 32/18 A30 RMK A01 T03190181  RH  044%=      5-min Rain = 0
KLE1 181656Z 14011KT 32/18 A30 RMK A01 T03210181  RH  043%=      5-min Rain = 0
KLE1 181657Z 14011KT 32/18 A30 RMK A01 T03220179  RH  043%=      5-min Rain = 0
KLE1 181658Z 15008KT 32/18 A30 RMK A01 T03210180  RH  043%=      5-min Rain = 0
KLE1 181659Z 17008KT 32/18 A30 RMK A01 T03210180  RH  043%=      5-min Rain = 0
KLE1 181700Z 15008KT 32/18 A30 RMK A01 T03210179  RH  043%=      5-min Rain = 0
KLE1 181701Z 16007KT 32/18 A30 RMK A01 T03200180  RH  043%=      5-min Rain = 0
KLE1 181702Z 15006KT 32/18 A30 RMK A01 T03210180  RH  043%=      5-min Rain = 0
KLE1 181703Z 14009KT 33/18 A30 RMK A01 T03250181  RH  043%=      5-min Rain = 0
KLE1 181704Z 14009KT 33/18 A2999 RMK A01 T03290182  RH  042%=      5-min Rain = 0
KLE1 181705Z 14009KT 33/18 A2999 RMK A01 T03310181  RH  041%=      5-min Rain = 0
KLE1 181706Z 15010KT 33/18 A2999 RMK A01 T03310178  RH  040%=      5-min Rain = 0
KLE1 181707Z 13009KT 33/18 A2999 RMK A01 T03290177  RH  041%=      5-min Rain = 0
KLE1 181708Z 16010KT 33/18 A2999 RMK A01 T03270178  RH  041%=      5-min Rain = 0
KLE1 181709Z 17010KT 33/18 A2999 RMK A01 T03290178  RH  041%=      5-min Rain = 0
KLE1 181710Z 17008KT 33/18 A2999 RMK A01 T03250176  RH  041%=      5-min Rain = 0
KLE1 181711Z 16011KT 32/18 A2999 RMK A01 T03210178  RH  043%=      5-min Rain = 0
KLE1 181712Z 15008KT 32/18 A2999 RMK A01 T03240179  RH  042%=      5-min Rain = 0
KLE1 181713Z 14010KT 33/18 A2999 RMK A01 T03250178  RH  042%=      5-min Rain = 0
KLE1 181714Z 13008KT 33/18 A2999 RMK A01 T03270178  RH  041%=      5-min Rain = 0
KLE1 181715Z 14014KT 33/18 A2999 RMK A01 T03280178  RH  041%=      5-min Rain = 0
KLE1 181716Z 14015KT 33/18 A2999 RMK A01 T03300178  RH  040%=      5-min Rain = 0
KLE1 181717Z 17014KT 33/18 A2999 RMK A01 T03310178  RH  040%=      5-min Rain = 0
KLE1 181718Z 17010KT 33/18 A2999 RMK A01 T03300177  RH  040%=      5-min Rain = 0
KLE1 181719Z 16011KT 33/18 A2999 RMK A01 T03290178  RH  041%=      5-min Rain = 0
KLE1 181720Z 16011KT 33/18 A2999 RMK A01 T03310178  RH  040%=      5-min Rain = 0
KLE1 181721Z 17008KT 33/18 A2999 RMK A01 T03310178  RH  040%=      5-min Rain = 0
KLE1 181722Z 17007KT 33/18 A2999 RMK A01 T03290178  RH  041%=      5-min Rain = 0
KLE1 181723Z 16008G13KT 33/18 A2999 RMK A01 T03290180  RH  041%=      5-min Rain = 0
KLE1 181724Z 13009KT 33/18 A2999 RMK A01 T03310181  RH  041%=      5-min Rain = 0
KLE1 181725Z 17009KT 33/18 A2999 RMK A01 T03310179  RH  041%=      5-min Rain = 0
KLE1 181726Z 18008KT 33/18 A2999 RMK A01 T03300178  RH  040%=      5-min Rain = 0
KLE1 181727Z 14006KT 33/18 A2999 RMK A01 T03290180  RH  041%=      5-min Rain = 0
KLE1 181728Z 14008G15KT 33/18 A2999 RMK A01 T03310180  RH  041%=      5-min Rain = 0
KLE1 181729Z 17012KT 33/18 A2999 RMK A01 T03330181  RH  041%=      5-min Rain = 0
KLE1 181730Z 18008KT 34/18 A2999 RMK A01 T03370180  RH  040%=      5-min Rain = 0
KLE1 181731Z 18008KT 34/18 A2999 RMK A01 T03400180  RH  039%=      5-min Rain = 0
KLE1 181732Z 15010KT 34/18 A2999 RMK A01 T03390178  RH  039%=      5-min Rain = 0
KLE1 181733Z 14009KT 34/18 A2999 RMK A01 T03350177  RH  039%=      5-min Rain = 0
KLE1 181734Z 15011KT 33/18 A2999 RMK A01 T03330178  RH  040%=      5-min Rain = 0
KLE1 181735Z 16010KT 33/18 A2999 RMK A01 T03330177  RH  039%=      5-min Rain = 0
KLE1 181736Z 16007KT 34/18 A2999 RMK A01 T03350175  RH  039%=      5-min Rain = 0
KLE1 181737Z 17010KT 33/18 A2999 RMK A01 T03340176  RH  039%=      5-min Rain = 0
KLE1 181738Z 18011KT 34/18 A2999 RMK A01 T03350176  RH  039%=      5-min Rain = 0
KLE1 181739Z 18011KT 33/18 A2999 RMK A01 T03340176  RH  039%=      5-min Rain = 0
KLE1 181740Z 17009KT 33/18 A2999 RMK A01 T03340176  RH  039%=      5-min Rain = 0
KLE1 181741Z 18008KT 34/18 A2999 RMK A01 T03350176  RH  039%=      5-min Rain = 0
KLE1 181742Z 17008KT 33/18 A2999 RMK A01 T03330176  RH  039%=      5-min Rain = 0
KLE1 181743Z 17008G14KT 33/18 A2999 RMK A01 T03310176  RH  040%=      5-min Rain = 0
KLE1 181744Z 17012KT 33/18 A2999 RMK A01 T03310177  RH  040%=      5-min Rain = 0
KLE1 181745Z 16008KT 33/18 A2999 RMK A01 T03330177  RH  039%=      5-min Rain = 0
KLE1 181746Z 17009KT 33/18 A2999 RMK A01 T03340177  RH  039%=      5-min Rain = 0
KLE1 181747Z 16010KT 33/18 A2999 RMK A01 T03330177  RH  039%=      5-min Rain = 0
KLE1 181748Z 17009KT 34/18 A2999 RMK A01 T03360175  RH  038%=      5-min Rain = 0
KLE1 181749Z 18007KT 34/18 A2999 RMK A01 T03370176  RH  038%=      5-min Rain = 0
KLE1 181750Z 19006KT 34/18 A2998 RMK A01 T03370176  RH  038%=      5-min Rain = 0
KLE1 181751Z 16011KT 34/18 A2998 RMK A01 T03360176  RH  039%=      5-min Rain = 0
KLE1 181752Z 17013KT 34/18 A2998 RMK A01 T03370175  RH  038%=      5-min Rain = 0
KLE1 181753Z 18007KT 34/17 A2998 RMK A01 T03380174  RH  038%=      5-min Rain = 0
KLE1 181754Z 16009KT 34/18 A2998 RMK A01 T03360175  RH  038%=      5-min Rain = 0
KLE1 181755Z 15004G9KT 34/17 A2998 RMK A01 T03370173  RH  038%=      5-min Rain = 0
KLE1 181756Z 19006KT 34/17 A2998 RMK A01 T03360173  RH  038%=      5-min Rain = 0
KLE1 181757Z 14009KT 34/17 A2998 RMK A01 T03370174  RH  038%=      5-min Rain = 0
KLE1 181758Z 16011KT 34/18 A2998 RMK A01 T03420176  RH  038%=      5-min Rain = 0
KLE1 181759Z 18013KT 35/18 A2998 RMK A01 T03450175  RH  036%=      5-min Rain = 0
KLE1 181800Z 18009KT 34/17 A2998 RMK A01 T03420171  RH  036%=      5-min Rain = 0
KLE1 181801Z 16007KT 34/17 A2998 RMK A01 T03380172  RH  037%=      5-min Rain = 0
KLE1 181802Z 17011KT 34/18 A2998 RMK A01 T03410175  RH  037%=      5-min Rain = 0
KLE1 181803Z 17012KT 34/17 A2998 RMK A01 T03430173  RH  036%=      5-min Rain = 0
KLE1 181804Z 17010KT 34/17 A2998 RMK A01 T03420173  RH  037%=      5-min Rain = 0
KLE1 181805Z 18011KT 34/18 A2998 RMK A01 T03430175  RH  037%=      5-min Rain = 0
KLE1 181806Z 20008KT 34/17 A2998 RMK A01 T03420173  RH  037%=      5-min Rain = 0
KLE1 181807Z 18011KT 34/17 A2998 RMK A01 T03420174  RH  037%=      5-min Rain = 0
KLE1 181808Z 18009KT 34/17 A2998 RMK A01 T03410174  RH  037%=      5-min Rain = 0
KLE1 181809Z 16005KT 34/17 A2998 RMK A01 T03400173  RH  037%=      5-min Rain = 0
KLE1 181810Z 15005G12KT 34/17 A2998 RMK A01 T03380173  RH  037%=      5-min Rain = 0
KLE1 181811Z 15011KT 34/17 A2997 RMK A01 T03390174  RH  037%=      5-min Rain = 0
KLE1 181812Z 13007KT 34/17 A2997 RMK A01 T03400173  RH  037%=      5-min Rain = 0
KLE1 181813Z 15006KT 34/17 A2997 RMK A01 T03400173  RH  037%=      5-min Rain = 0
KLE1 181814Z 15010G18KT 34/17 A2997 RMK A01 T03420174  RH  037%=      5-min Rain = 0
KLE1 181815Z 17010KT 35/18 A2997 RMK A01 T03460176  RH  036%=      5-min Rain = 0
KLE1 181816Z 17011KT 35/18 A2997 RMK A01 T03490176  RH  036%=      5-min Rain = 0
KLE1 181817Z 15009KT 35/18 A2997 RMK A01 T03500177  RH  036%=      5-min Rain = 0
KLE1 181818Z 18007KT 35/18 A2997 RMK A01 T03510175  RH  035%=      5-min Rain = 0
KLE1 181819Z 17009KT 35/18 A2997 RMK A01 T03480176  RH  036%=      5-min Rain = 0
KLE1 181820Z 18013G18KT 35/18 A2997 RMK A01 T03470175  RH  036%=      5-min Rain = 0
KLE1 181821Z 18011KT 35/18 A2997 RMK A01 T03480175  RH  036%=      5-min Rain = 0
KLE1 181822Z 19009G14KT 35/18 A2997 RMK A01 T03490175  RH  036%=      5-min Rain = 0
KLE1 181823Z 19009G14KT 35/17 A2997 RMK A01 T03480172  RH  035%=      5-min Rain = 0
KLE1 181824Z 18011G16KT 35/17 A2997 RMK A01 T03470174  RH  036%=      5-min Rain = 0
KLE1 181825Z 19012KT 35/17 A2997 RMK A01 T03520173  RH  035%=      5-min Rain = 0
KLE1 181826Z 18008KT 35/17 A2997 RMK A01 T03490171  RH  035%=      5-min Rain = 0
KLE1 181827Z 20006KT 35/17 A2997 RMK A01 T03460170  RH  035%=      5-min Rain = 0
KLE1 181828Z 16007KT 35/17 A2997 RMK A01 T03460172  RH  036%=      5-min Rain = 0
KLE1 181829Z 16006KT 35/17 A2997 RMK A01 T03470172  RH  035%=      5-min Rain = 0
KLE1 181830Z 14007KT 35/17 A2997 RMK A01 T03490173  RH  035%=      5-min Rain = 0
KLE1 181831Z 13005KT 35/17 A2996 RMK A01 T03500171  RH  035%=      5-min Rain = 0
KLE1 181832Z 16010KT 35/17 A2996 RMK A01 T03480172  RH  035%=      5-min Rain = 0
KLE1 181833Z 15008KT 35/17 A2996 RMK A01 T03480170  RH  035%=      5-min Rain = 0
KLE1 181834Z 17005KT 34/17 A2996 RMK A01 T03440169  RH  035%=      5-min Rain = 0
KLE1 181835Z 15010KT 35/17 A2996 RMK A01 T03450173  RH  036%=      5-min Rain = 0
KLE1 181836Z 15012G18KT 35/17 A2996 RMK A01 T03490172  RH  035%=      5-min Rain = 0
KLE1 181837Z 17012G17KT 35/17 A2996 RMK A01 T03500171  RH  035%=      5-min Rain = 0
KLE1 181838Z 15008KT 35/17 A2996 RMK A01 T03500172  RH  035%=      5-min Rain = 0
KLE1 181839Z 14010KT 35/17 A2996 RMK A01 T03520172  RH  034%=      5-min Rain = 0
KLE1 181840Z 14015KT 35/17 A2996 RMK A01 T03540171  RH  034%=      5-min Rain = 0
KLE1 181841Z 14011KT 35/17 A2996 RMK A01 T03540170  RH  034%=      5-min Rain = 0
KLE1 181842Z 17009KT 35/17 A2996 RMK A01 T03510169  RH  034%=      5-min Rain = 0
KLE1 181843Z 15009KT 35/17 A2996 RMK A01 T03500170  RH  034%=      5-min Rain = 0
KLE1 181844Z 13006KT 35/17 A2996 RMK A01 T03500169  RH  034%=      5-min Rain = 0
KLE1 181845Z 13007KT 35/17 A2996 RMK A01 T03480169  RH  035%=      5-min Rain = 0
KLE1 181846Z 14010KT 35/17 A2996 RMK A01 T03480170  RH  035%=      5-min Rain = 0
KLE1 181847Z 16007G14KT 35/17 A2996 RMK A01 T03500170  RH  035%=      5-min Rain = 0
KLE1 181848Z 17013G18KT 35/17 A2996 RMK A01 T03520172  RH  034%=      5-min Rain = 0
KLE1 181849Z 20014KT 35/17 A2996 RMK A01 T03540174  RH  034%=      5-min Rain = 0
KLE1 181850Z 21009KT 35/17 A2996 RMK A01 T03530172  RH  034%=      5-min Rain = 0
KLE1 181851Z 18008KT 35/17 A2996 RMK A01 T03510172  RH  035%=      5-min Rain = 0
KLE1 181852Z 16007KT 35/17 A2996 RMK A01 T03500171  RH  035%=      5-min Rain = 0
KLE1 181853Z 16006KT 35/17 A2996 RMK A01 T03490170  RH  035%=      5-min Rain = 0
KLE1 181854Z 16005KT 35/17 A2996 RMK A01 T03510171  RH  034%=      5-min Rain = 0
KLE1 181855Z 13008KT 35/17 A2995 RMK A01 T03510170  RH  034%=      5-min Rain = 0
KLE1 181856Z 13006KT 35/17 A2995 RMK A01 T03510171  RH  034%=      5-min Rain = 0
KLE1 181857Z 14011KT 35/17 A2995 RMK A01 T03520170  RH  034%=      5-min Rain = 0
KLE1 181858Z 13011KT 35/17 A2995 RMK A01 T03530169  RH  034%=      5-min Rain = 0
KLE1 181859Z 16011KT 35/17 A2995 RMK A01 T03520170  RH  034%=      5-min Rain = 0
KLE1 181900Z 17013KT 35/17 A2995 RMK A01 T03540172  RH  034%=      5-min Rain = 0
KLE1 181901Z 17013KT 36/17 A2995 RMK A01 T03550171  RH  034%=      5-min Rain = 0
KLE1 181902Z 16010KT 35/17 A2995 RMK A01 T03530169  RH  034%=      5-min Rain = 0
KLE1 181903Z 15012KT 35/17 A2995 RMK A01 T03510170  RH  034%=      5-min Rain = 0
KLE1 181904Z 13007KT 35/17 A2995 RMK A01 T03510169  RH  034%=      5-min Rain = 0
KLE1 181905Z 14009KT 35/17 A2995 RMK A01 T03490169  RH  035%=      5-min Rain = 0
KLE1 181906Z 14011KT 35/17 A2995 RMK A01 T03490168  RH  034%=      5-min Rain = 0
KLE1 181907Z 15010KT 35/17 A2995 RMK A01 T03500169  RH  034%=      5-min Rain = 0
KLE1 181908Z 17007KT 35/17 A2995 RMK A01 T03510169  RH  034%=      5-min Rain = 0
KLE1 181909Z 15009KT 35/17 A2995 RMK A01 T03520170  RH  034%=      5-min Rain = 0
KLE1 181910Z 14014G19KT 35/17 A2994 RMK A01 T03520170  RH  034%=      5-min Rain = 0
KLE1 181911Z 14012KT 35/17 A2995 RMK A01 T03500169  RH  034%=      5-min Rain = 0
KLE1 181912Z 13010KT 35/17 A2995 RMK A01 T03490169  RH  035%=      5-min Rain = 0
KLE1 181913Z 14009KT 35/17 A2994 RMK A01 T03500170  RH  035%=      5-min Rain = 0
KLE1 181914Z 16014KT 35/17 A2994 RMK A01 T03530171  RH  034%=      5-min Rain = 0
KLE1 181915Z 15015KT 36/17 A2994 RMK A01 T03560171  RH  033%=      5-min Rain = 0
KLE1 181916Z 15013KT 36/17 A2994 RMK A01 T03580170  RH  033%=      5-min Rain = 0
KLE1 181917Z 16010KT 36/17 A2994 RMK A01 T03560168  RH  033%=      5-min Rain = 0
KLE1 181918Z 17009KT 36/17 A2994 RMK A01 T03550170  RH  033%=      5-min Rain = 0
KLE1 181919Z 17009KT 36/17 A2994 RMK A01 T03570169  RH  033%=      5-min Rain = 0
KLE1 181920Z 15009KT 36/17 A2994 RMK A01 T03560170  RH  033%=      5-min Rain = 0
KLE1 181921Z 18009KT 36/17 A2994 RMK A01 T03600172  RH  033%=      5-min Rain = 0
KLE1 181922Z 19006KT 36/17 A2994 RMK A01 T03610170  RH  032%=      5-min Rain = 0
KLE1 181923Z 16008KT 36/17 A2994 RMK A01 T03600171  RH  033%=      5-min Rain = 0
KLE1 181924Z 14012KT 36/17 A2994 RMK A01 T03620172  RH  033%=      5-min Rain = 0
KLE1 181925Z 13013KT 36/17 A2994 RMK A01 T03610169  RH  032%=      5-min Rain = 0
KLE1 181926Z 12012KT 36/17 A2994 RMK A01 T03580169  RH  033%=      5-min Rain = 0
KLE1 181927Z 12012KT 36/17 A2993 RMK A01 T03570170  RH  033%=      5-min Rain = 0
KLE1 181928Z 14009KT 36/17 A2993 RMK A01 T03560168  RH  033%=      5-min Rain = 0
KLE1 181929Z 16015KT 35/17 A2993 RMK A01 T03530169  RH  034%=      5-min Rain = 0
KLE1 181930Z 15011G18KT 35/17 A2994 RMK A01 T03510167  RH  034%=      5-min Rain = 0
KLE1 181931Z 14008KT 35/17 A2993 RMK A01 T03500169  RH  034%=      5-min Rain = 0
KLE1 181932Z 14011KT 35/17 A2993 RMK A01 T03520170  RH  034%=      5-min Rain = 0
KLE1 181933Z 13011KT 36/17 A2993 RMK A01 T03570171  RH  033%=      5-min Rain = 0
KLE1 181934Z 13009KT 36/17 A2993 RMK A01 T03580169  RH  033%=      5-min Rain = 0
KLE1 181935Z 13014KT 36/17 A2993 RMK A01 T03570169  RH  033%=      5-min Rain = 0
KLE1 181936Z 14015KT 36/17 A2993 RMK A01 T03570168  RH  033%=      5-min Rain = 0
KLE1 181937Z 14014KT 36/17 A2993 RMK A01 T03580169  RH  033%=      5-min Rain = 0
KLE1 181938Z 15011KT 36/17 A2993 RMK A01 T03600169  RH  032%=      5-min Rain = 0
KLE1 181939Z 18010KT 36/17 A2993 RMK A01 T03610166  RH  032%=      5-min Rain = 0
KLE1 181940Z 19010KT 36/16 A2993 RMK A01 T03600164  RH  031%=      5-min Rain = 0
KLE1 181941Z 20005KT 36/16 A2993 RMK A01 T03590162  RH  031%=      5-min Rain = 0
KLE1 181942Z 20007KT 36/16 A2993 RMK A01 T03570163  RH  032%=      5-min Rain = 0
KLE1 181943Z 20005KT 36/16 A2993 RMK A01 T03550161  RH  032%=      5-min Rain = 0
KLE1 181944Z 19004G10KT 35/16 A2993 RMK A01 T03540162  RH  032%=      5-min Rain = 0
KLE1 181945Z 18008KT 35/16 A2993 RMK A01 T03540162  RH  032%=      5-min Rain = 0
KLE1 181946Z 14011KT 36/17 A2993 RMK A01 T03550167  RH  033%=      5-min Rain = 0
KLE1 181947Z 15010KT 36/17 A2993 RMK A01 T03570169  RH  033%=      5-min Rain = 0
KLE1 181948Z 17010KT 36/17 A2993 RMK A01 T03610169  RH  032%=      5-min Rain = 0
KLE1 181949Z 16008KT 36/17 A2993 RMK A01 T03600168  RH  032%=      5-min Rain = 0
KLE1 181950Z 17012G17KT 36/17 A2993 RMK A01 T03620169  RH  032%=      5-min Rain = 0
KLE1 181951Z 16006KT 36/16 A2993 RMK A01 T03620164  RH  031%=      5-min Rain = 0
KLE1 181952Z 18009KT 36/17 A2993 RMK A01 T03620165  RH  031%=      5-min Rain = 0
KLE1 181953Z 18010KT 36/16 A2993 RMK A01 T03640164  RH  031%=      5-min Rain = 0
KLE1 181954Z 17010KT 37/17 A2993 RMK A01 T03710165  RH  030%=      5-min Rain = 0
KLE1 181955Z 18009KT 37/16 A2993 RMK A01 T03710162  RH  029%=      5-min Rain = 0
KLE1 181956Z 19006KT 37/16 A2993 RMK A01 T03650159  RH  030%=      5-min Rain = 0
KLE1 181957Z 18007KT 36/16 A2993 RMK A01 T03630162  RH  030%=      5-min Rain = 0
KLE1 181958Z 17009KT 37/16 A2992 RMK A01 T03650159  RH  030%=      5-min Rain = 0
KLE1 181959Z 21011KT 37/16 A2992 RMK A01 T03650158  RH  029%=      5-min Rain = 0
KLE1 182000Z 20004KT 36/16 A2992 RMK A01 T03610157  RH  030%=      5-min Rain = 0
KLE1 182001Z 16006KT 36/16 A2992 RMK A01 T03620158  RH  030%=      5-min Rain = 0
KLE1 182002Z 16006KT 36/16 A2992 RMK A01 T03620159  RH  030%=      5-min Rain = 0
KLE1 182003Z 15009KT 36/16 A2992 RMK A01 T03630164  RH  031%=      5-min Rain = 0
KLE1 182004Z 17012KT 36/17 A2992 RMK A01 T03620165  RH  031%=      5-min Rain = 0
KLE1 182005Z 17013KT 36/17 A2992 RMK A01 T03640166  RH  031%=      5-min Rain = 0
KLE1 182006Z 15013KT 37/16 A2992 RMK A01 T03650164  RH  031%=      5-min Rain = 0
KLE1 182007Z 15010KT 36/16 A2992 RMK A01 T03630164  RH  031%=      5-min Rain = 0
KLE1 182008Z 17018KT 36/16 A2992 RMK A01 T03630162  RH  030%=      5-min Rain = 0
KLE1 182009Z 19016KT 36/16 A2992 RMK A01 T03630157  RH  029%=      5-min Rain = 0
KLE1 182010Z 19012KT 36/16 A2992 RMK A01 T03620156  RH  029%=      5-min Rain = 0
KLE1 182011Z 20011KT 36/16 A2992 RMK A01 T03620155  RH  029%=      5-min Rain = 0
KLE1 182012Z 19009G14KT 36/16 A2992 RMK A01 T03630157  RH  029%=      5-min Rain = 0
KLE1 182013Z 20011KT 37/16 A2992 RMK A01 T03660158  RH  029%=      5-min Rain = 0
KLE1 182014Z 20010KT 37/16 A2992 RMK A01 T03670157  RH  029%=      5-min Rain = 0
KLE1 182015Z 21011KT 37/16 A2992 RMK A01 T03680156  RH  029%=      5-min Rain = 0
KLE1 182016Z 17010KT 37/16 A2992 RMK A01 T03670158  RH  029%=      5-min Rain = 0
KLE1 182017Z 16008KT 37/16 A2992 RMK A01 T03660160  RH  030%=      5-min Rain = 0
KLE1 182018Z 18007KT 36/16 A2992 RMK A01 T03640159  RH  030%=      5-min Rain = 0
KLE1 182019Z 19008KT 36/16 A2992 RMK A01 T03630160  RH  030%=      5-min Rain = 0
KLE1 182020Z 18005KT 36/16 A2992 RMK A01 T03620159  RH  030%=      5-min Rain = 0
KLE1 182021Z 12007KT 36/16 A2992 RMK A01 T03600159  RH  030%=      5-min Rain = 0
KLE1 182022Z 14007KT 36/16 A2992 RMK A01 T03600159  RH  030%=      5-min Rain = 0
KLE1 182023Z 12005KT 36/16 A2991 RMK A01 T03590159  RH  031%=      5-min Rain = 0
KLE1 182024Z 14011G18KT 36/16 A2991 RMK A01 T03590161  RH  031%=      5-min Rain = 0
KLE1 182025Z 19014KT 37/16 A2991 RMK A01 T03660164  RH  030%=      5-min Rain = 0
KLE1 182026Z 18013KT 37/16 A2991 RMK A01 T03710160  RH  029%=      5-min Rain = 0
KLE1 182027Z 19013KT 37/16 A2991 RMK A01 T03710160  RH  029%=      5-min Rain = 0
KLE1 182028Z 19011KT 37/16 A2991 RMK A01 T03700159  RH  029%=      5-min Rain = 0
KLE1 182029Z 17013KT 37/16 A2991 RMK A01 T03680159  RH  029%=      5-min Rain = 0
KLE1 182030Z 17012KT 37/16 A2991 RMK A01 T03680159  RH  029%=      5-min Rain = 0
KLE1 182031Z 19010KT 37/16 A2991 RMK A01 T03690158  RH  029%=      5-min Rain = 0
KLE1 182032Z 20008KT 37/16 A2991 RMK A01 T03680156  RH  029%=      5-min Rain = 0
KLE1 182033Z 19006KT 37/16 A2991 RMK A01 T03690156  RH  028%=      5-min Rain = 0
KLE1 182034Z 20005KT 37/16 A2991 RMK A01 T03680155  RH  028%=      5-min Rain = 0
KLE1 182035Z 17007KT 37/16 A2991 RMK A01 T03670155  RH  029%=      5-min Rain = 0
KLE1 182036Z 14012KT 37/16 A2991 RMK A01 T03670158  RH  029%=      5-min Rain = 0
KLE1 182037Z 14009KT 36/16 A2991 RMK A01 T03640157  RH  029%=      5-min Rain = 0
KLE1 182038Z 17006KT 36/16 A2991 RMK A01 T03630157  RH  030%=      5-min Rain = 0
KLE1 182039Z 18006KT 36/16 A2991 RMK A01 T03620156  RH  029%=      5-min Rain = 0
KLE1 182040Z 18007KT 37/16 A2991 RMK A01 T03650159  RH  030%=      5-min Rain = 0
KLE1 182041Z 15006KT 37/16 A2991 RMK A01 T03650158  RH  029%=      5-min Rain = 0
KLE1 182042Z 16003KT 36/16 A2991 RMK A01 T03630158  RH  030%=      5-min Rain = 0
KLE1 182043Z 17007KT 36/16 A2991 RMK A01 T03630159  RH  030%=      5-min Rain = 0
KLE1 182044Z 16011KT 37/16 A2991 RMK A01 T03650162  RH  030%=      5-min Rain = 0
KLE1 182045Z 16009KT 37/16 A2991 RMK A01 T03690162  RH  030%=      5-min Rain = 0
KLE1 182046Z 16007KT 37/16 A2991 RMK A01 T03700162  RH  029%=      5-min Rain = 0
KLE1 182047Z 15013G19KT 37/16 A2991 RMK A01 T03720162  RH  029%=      5-min Rain = 0
KLE1 182048Z 16014G19KT 37/16 A2991 RMK A01 T03690158  RH  029%=      5-min Rain = 0
KLE1 182049Z 15009G14KT 37/16 A2991 RMK A01 T03660158  RH  029%=      5-min Rain = 0
KLE1 182050Z 16008G15KT 37/16 A2991 RMK A01 T03650159  RH  030%=      5-min Rain = 0
KLE1 182051Z 16010G15KT 37/16 A2991 RMK A01 T03680160  RH  029%=      5-min Rain = 0
KLE1 182052Z 14010KT 37/16 A2991 RMK A01 T03690158  RH  029%=      5-min Rain = 0
KLE1 182053Z 14009KT 37/16 A299 RMK A01 T03670158  RH  029%=      5-min Rain = 0
KLE1 182054Z 15008KT 37/16 A299 RMK A01 T03660159  RH  029%=      5-min Rain = 0
KLE1 182055Z 17008KT 37/16 A299 RMK A01 T03690159  RH  029%=      5-min Rain = 0
KLE1 182056Z 19008KT 37/16 A299 RMK A01 T03690157  RH  029%=      5-min Rain = 0
KLE1 182057Z 20007KT 37/16 A299 RMK A01 T03660155  RH  029%=      5-min Rain = 0
KLE1 182058Z 17006KT 37/16 A299 RMK A01 T03670156  RH  029%=      5-min Rain = 0
KLE1 182059Z 21004KT 37/16 A299 RMK A01 T03690156  RH  028%=      5-min Rain = 0
KLE1 182100Z 19005KT 37/16 A299 RMK A01 T03710157  RH  028%=      5-min Rain = 0
KLE1 182101Z 13009KT 37/16 A299 RMK A01 T03720158  RH  028%=      5-min Rain = 0
KLE1 182102Z 14010KT 37/16 A299 RMK A01 T03690156  RH  028%=      5-min Rain = 0
KLE1 182103Z 13005KT 36/16 A299 RMK A01 T03630156  RH  029%=      5-min Rain = 0
KLE1 182104Z 15004G9KT 36/16 A299 RMK A01 T03620157  RH  030%=      5-min Rain = 0
KLE1 182105Z 15006KT 36/16 A299 RMK A01 T03630157  RH  029%=      5-min Rain = 0
KLE1 182106Z 14011KT 37/16 A299 RMK A01 T03660160  RH  030%=      5-min Rain = 0
KLE1 182107Z 16010KT 37/16 A299 RMK A01 T03680159  RH  029%=      5-min Rain = 0
KLE1 182108Z 15008KT 37/16 A299 RMK A01 T03670159  RH  029%=      5-min Rain = 0
KLE1 182109Z 14008KT 37/16 A299 RMK A01 T03660159  RH  029%=      5-min Rain = 0
KLE1 182110Z 13010KT 37/16 A299 RMK A01 T03660160  RH  030%=      5-min Rain = 0
KLE1 182111Z 14011KT 37/16 A299 RMK A01 T03680160  RH  029%=      5-min Rain = 0
KLE1 182112Z 13011KT 37/16 A299 RMK A01 T03690159  RH  029%=      5-min Rain = 0
KLE1 182113Z 14008KT 37/16 A299 RMK A01 T03680159  RH  029%=      5-min Rain = 0
KLE1 182114Z 15009KT 37/16 A299 RMK A01 T03650159  RH  029%=      5-min Rain = 0
KLE1 182115Z 16014KT 37/16 A299 RMK A01 T03660160  RH  029%=      5-min Rain = 0
KLE1 182116Z 18011KT 37/16 A299 RMK A01 T03670157  RH  029%=      5-min Rain = 0
KLE1 182117Z 17009KT 37/16 A299 RMK A01 T03680157  RH  029%=      5-min Rain = 0
KLE1 182118Z 17007KT 37/16 A299 RMK A01 T03710158  RH  028%=      5-min Rain = 0
KLE1 182119Z 17012KT 37/16 A2989 RMK A01 T03710158  RH  028%=      5-min Rain = 0
KLE1 182120Z 17012KT 37/16 A2989 RMK A01 T03700157  RH  028%=      5-min Rain = 0
KLE1 182121Z 18012KT 37/16 A2989 RMK A01 T03700158  RH  029%=      5-min Rain = 0
KLE1 182122Z 18010KT 37/16 A2989 RMK A01 T03670155  RH  028%=      5-min Rain = 0
KLE1 182123Z 16006G11KT 37/16 A2989 RMK A01 T03650155  RH  029%=      5-min Rain = 0
KLE1 182124Z 18011KT 36/16 A2989 RMK A01 T03640155  RH  029%=      5-min Rain = 0
KLE1 182125Z 18010KT 37/15 A2989 RMK A01 T03660154  RH  028%=      5-min Rain = 0
KLE1 182126Z 17010KT 37/15 A2989 RMK A01 T03650153  RH  028%=      5-min Rain = 0
KLE1 182127Z 16010KT 36/15 A2989 RMK A01 T03640152  RH  028%=      5-min Rain = 0
KLE1 182128Z 16010KT 36/15 A2989 RMK A01 T03640154  RH  029%=      5-min Rain = 0
KLE1 182129Z 18009KT 37/15 A2989 RMK A01 T03660154  RH  028%=      5-min Rain = 0
KLE1 182130Z 17008KT 37/16 A2989 RMK A01 T03680155  RH  028%=      5-min Rain = 0
KLE1 182131Z 18008KT 37/16 A2989 RMK A01 T03710155  RH  028%=      5-min Rain = 0
KLE1 182132Z 20006KT 37/16 A2989 RMK A01 T03690156  RH  028%=      5-min Rain = 0
KLE1 182133Z 17012KT 37/16 A2989 RMK A01 T03680158  RH  029%=      5-min Rain = 0
KLE1 182134Z 17012KT 37/16 A2989 RMK A01 T03680156  RH  029%=      5-min Rain = 0
KLE1 182135Z 17009KT 37/16 A2989 RMK A01 T03670155  RH  029%=      5-min Rain = 0
KLE1 182136Z 15008KT 37/16 A2989 RMK A01 T03650156  RH  029%=      5-min Rain = 0
KLE1 182137Z 16010KT 37/16 A2989 RMK A01 T03650155  RH  029%=      5-min Rain = 0
KLE1 182138Z 15008KT 36/16 A2989 RMK A01 T03640155  RH  029%=      5-min Rain = 0
KLE1 182139Z 13009KT 36/16 A2989 RMK A01 T03640156  RH  029%=      5-min Rain = 0
KLE1 182140Z 15007KT 37/16 A2989 RMK A01 T03660156  RH  029%=      5-min Rain = 0
KLE1 182141Z 15005KT 36/15 A2989 RMK A01 T03640154  RH  029%=      5-min Rain = 0
KLE1 182142Z 14009KT 36/16 A2989 RMK A01 T03640156  RH  029%=      5-min Rain = 0
KLE1 182143Z 14012KT 36/15 A2989 RMK A01 T03640154  RH  029%=      5-min Rain = 0
KLE1 182144Z 14010KT 36/15 A2989 RMK A01 T03600152  RH  029%=      5-min Rain = 0
KLE1 182145Z 13008KT 36/15 A2989 RMK A01 T03560152  RH  030%=      5-min Rain = 0
KLE1 182146Z 13006KT 35/15 A2989 RMK A01 T03540152  RH  030%=      5-min Rain = 0
KLE1 182147Z 13009KT 36/15 A2989 RMK A01 T03550154  RH  030%=      5-min Rain = 0
KLE1 182148Z 13010KT 36/15 A2989 RMK A01 T03590154  RH  030%=      5-min Rain = 0
KLE1 182149Z 14012KT 36/16 A2989 RMK A01 T03610158  RH  030%=      5-min Rain = 0
KLE1 182150Z 14009KT 36/16 A2989 RMK A01 T03640157  RH  029%=      5-min Rain = 0
KLE1 182151Z 13013KT 37/16 A2989 RMK A01 T03650158  RH  029%=      5-min Rain = 0
KLE1 182152Z 14012KT 36/16 A2989 RMK A01 T03640158  RH  030%=      5-min Rain = 0
KLE1 182153Z 13012KT 36/16 A2989 RMK A01 T03630159  RH  030%=      5-min Rain = 0
KLE1 182154Z 14011KT 36/16 A2989 RMK A01 T03630160  RH  030%=      5-min Rain = 0
KLE1 182155Z 15012KT 36/16 A2989 RMK A01 T03640161  RH  030%=      5-min Rain = 0
KLE1 182156Z 16011KT 37/16 A2989 RMK A01 T03660161  RH  030%=      5-min Rain = 0
KLE1 182157Z 18010KT 36/16 A2989 RMK A01 T03630158  RH  030%=      5-min Rain = 0
KLE1 182158Z 19008KT 36/16 A2989 RMK A01 T03580155  RH  030%=      5-min Rain = 0
KLE1 182159Z 18010KT 36/16 A2989 RMK A01 T03550155  RH  031%=      5-min Rain = 0
KLE1 182200Z 16012KT 35/16 A2989 RMK A01 T03520156  RH  031%=      5-min Rain = 0
KLE1 182201Z 17011KT 35/16 A2989 RMK A01 T03510156  RH  031%=      5-min Rain = 0
KLE1 182202Z 18010KT 35/16 A2989 RMK A01 T03500156  RH  031%=      5-min Rain = 0
KLE1 182203Z 18010KT 35/16 A2989 RMK A01 T03490155  RH  032%=      5-min Rain = 0
KLE1 182204Z 19010KT 35/16 A2989 RMK A01 T03500156  RH  031%=      5-min Rain = 0
KLE1 182205Z 17008KT 35/16 A2989 RMK A01 T03520157  RH  031%=      5-min Rain = 0
KLE1 182206Z 16007KT 36/16 A2989 RMK A01 T03560158  RH  031%=      5-min Rain = 0
KLE1 182207Z 16010KT 36/16 A2989 RMK A01 T03590158  RH  030%=      5-min Rain = 0
KLE1 182208Z 15011KT 36/16 A2989 RMK A01 T03620159  RH  030%=      5-min Rain = 0
KLE1 182209Z 13013KT 36/16 A2988 RMK A01 T03630158  RH  030%=      5-min Rain = 0
KLE1 182210Z 13013KT 36/16 A2988 RMK A01 T03630157  RH  029%=      5-min Rain = 0
KLE1 182211Z 14007KT 36/16 A2988 RMK A01 T03620157  RH  030%=      5-min Rain = 0
KLE1 182212Z 15009G14KT 36/16 A2988 RMK A01 T03600158  RH  030%=      5-min Rain = 0
KLE1 182213Z 16013KT 36/16 A2988 RMK A01 T03600158  RH  030%=      5-min Rain = 0
KLE1 182214Z 17009KT 36/16 A2988 RMK A01 T03610158  RH  030%=      5-min Rain = 0
KLE1 182215Z 14013KT 36/16 A2988 RMK A01 T03600158  RH  030%=      5-min Rain = 0
KLE1 182216Z 13014KT 36/16 A2988 RMK A01 T03590159  RH  030%=      5-min Rain = 0
KLE1 182217Z 13011KT 36/16 A2988 RMK A01 T03590158  RH  030%=      5-min Rain = 0
KLE1 182218Z 13012KT 36/16 A2988 RMK A01 T03600159  RH  030%=      5-min Rain = 0
KLE1 182219Z 14013KT 36/16 A2988 RMK A01 T03600159  RH  030%=      5-min Rain = 0
KLE1 182220Z 14009KT 36/16 A2988 RMK A01 T03580160  RH  031%=      5-min Rain = 0
KLE1 182221Z 13011KT 36/16 A2988 RMK A01 T03570161  RH  031%=      5-min Rain = 0
KLE1 182222Z 13011KT 36/16 A2988 RMK A01 T03590162  RH  031%=      5-min Rain = 0
KLE1 182223Z 12010KT 36/16 A2988 RMK A01 T03580161  RH  031%=      5-min Rain = 0
KLE1 182224Z 13008KT 36/16 A2988 RMK A01 T03570162  RH  031%=      5-min Rain = 0
KLE1 182225Z 13008KT 36/16 A2988 RMK A01 T03580162  RH  031%=      5-min Rain = 0
KLE1 182226Z 14009KT 36/16 A2988 RMK A01 T03590163  RH  031%=      5-min Rain = 0
KLE1 182227Z 15011KT 36/16 A2988 RMK A01 T03610164  RH  031%=      5-min Rain = 0
KLE1 182228Z 15013KT 36/16 A2988 RMK A01 T03630163  RH  031%=      5-min Rain = 0
KLE1 182229Z 15014KT 36/16 A2988 RMK A01 T03630160  RH  030%=      5-min Rain = 0
KLE1 182230Z 15011KT 36/16 A2988 RMK A01 T03610160  RH  030%=      5-min Rain = 0
KLE1 182231Z 15013KT 36/16 A2988 RMK A01 T03570159  RH  031%=      5-min Rain = 0
KLE1 182232Z 15013KT 35/16 A2988 RMK A01 T03530158  RH  031%=      5-min Rain = 0
KLE1 182233Z 15012KT 35/16 A2988 RMK A01 T03490157  RH  032%=      5-min Rain = 0
KLE1 182234Z 16009KT 35/16 A2988 RMK A01 T03480158  RH  032%=      5-min Rain = 0
KLE1 182235Z 14008KT 35/16 A2988 RMK A01 T03470157  RH  032%=      5-min Rain = 0
KLE1 182236Z 14014KT 35/16 A2988 RMK A01 T03460158  RH  033%=      5-min Rain = 0
KLE1 182237Z 14012KT 35/16 A2988 RMK A01 T03480160  RH  033%=      5-min Rain = 0
KLE1 182238Z 15014KT 35/16 A2988 RMK A01 T03530161  RH  032%=      5-min Rain = 0
KLE1 182239Z 15012KT 36/16 A2988 RMK A01 T03560160  RH  031%=      5-min Rain = 0
KLE1 182240Z 14011KT 36/16 A2987 RMK A01 T03560160  RH  031%=      5-min Rain = 0
KLE1 182241Z 14011KT 36/16 A2987 RMK A01 T03560160  RH  031%=      5-min Rain = 0
KLE1 182242Z 15012KT 36/16 A2987 RMK A01 T03560160  RH  031%=      5-min Rain = 0
KLE1 182243Z 13012KT 36/16 A2987 RMK A01 T03560160  RH  031%=      5-min Rain = 0
KLE1 182244Z 15013KT 36/16 A2987 RMK A01 T03560160  RH  031%=      5-min Rain = 0
KLE1 182245Z 17008KT 36/16 A2987 RMK A01 T03570160  RH  031%=      5-min Rain = 0
KLE1 182246Z 17008KT 36/16 A2987 RMK A01 T03580159  RH  031%=      5-min Rain = 0
KLE1 182247Z 15008KT 36/16 A2987 RMK A01 T03590160  RH  031%=      5-min Rain = 0
KLE1 182248Z 14011KT 36/16 A2987 RMK A01 T03600161  RH  031%=      5-min Rain = 0
KLE1 182249Z 14012KT 36/16 A2987 RMK A01 T03600160  RH  031%=      5-min Rain = 0
KLE1 182250Z 12010KT 36/16 A2987 RMK A01 T03590161  RH  031%=      5-min Rain = 0
KLE1 182251Z 12011KT 36/16 A2987 RMK A01 T03580160  RH  031%=      5-min Rain = 0
KLE1 182252Z 13012KT 36/16 A2987 RMK A01 T03580160  RH  031%=      5-min Rain = 0
KLE1 182253Z 13014KT 36/16 A2987 RMK A01 T03570160  RH  031%=      5-min Rain = 0
KLE1 182254Z 15014KT 36/16 A2987 RMK A01 T03570159  RH  031%=      5-min Rain = 0
KLE1 182255Z 13012KT 36/16 A2987 RMK A01 T03570158  RH  031%=      5-min Rain = 0
KLE1 182256Z 13012KT 36/16 A2987 RMK A01 T03570158  RH  031%=      5-min Rain = 0
KLE1 182257Z 13012KT 36/16 A2987 RMK A01 T03560157  RH  031%=      5-min Rain = 0
KLE1 182258Z 13011KT 36/16 A2987 RMK A01 T03560157  RH  031%=      5-min Rain = 0
KLE1 182259Z 13011KT 36/16 A2987 RMK A01 T03560159  RH  031%=      5-min Rain = 0
KLE1 182300Z 13012KT 36/16 A2987 RMK A01 T03570157  RH  031%=      5-min Rain = 0
KLE1 182301Z 13013KT 36/16 A2987 RMK A01 T03560158  RH  031%=      5-min Rain = 0
KLE1 182302Z 13013G19KT 36/16 A2987 RMK A01 T03560156  RH  030%=      5-min Rain = 0
KLE1 182303Z 14013G18KT 36/16 A2987 RMK A01 T03550157  RH  031%=      5-min Rain = 0
KLE1 182304Z 15011KT 35/16 A2987 RMK A01 T03540158  RH  031%=      5-min Rain = 0
KLE1 182305Z 14011KT 35/16 A2987 RMK A01 T03540158  RH  031%=      5-min Rain = 0
KLE1 182306Z 13013KT 35/16 A2987 RMK A01 T03540157  RH  031%=      5-min Rain = 0
KLE1 182307Z 13014KT 35/16 A2987 RMK A01 T03530157  RH  031%=      5-min Rain = 0
KLE1 182308Z 14013KT 35/16 A2987 RMK A01 T03530156  RH  031%=      5-min Rain = 0
KLE1 182309Z 14014KT 35/16 A2987 RMK A01 T03530156  RH  031%=      5-min Rain = 0
KLE1 182310Z 13013KT 35/16 A2987 RMK A01 T03520155  RH  031%=      5-min Rain = 0
KLE1 182311Z 13011KT 35/15 A2987 RMK A01 T03500154  RH  031%=      5-min Rain = 0
KLE1 182312Z 13014KT 35/16 A2987 RMK A01 T03500155  RH  031%=      5-min Rain = 0
KLE1 182313Z 13013KT 35/15 A2987 RMK A01 T03490154  RH  031%=      5-min Rain = 0
KLE1 182314Z 13011KT 35/15 A2987 RMK A01 T03490154  RH  031%=      5-min Rain = 0
KLE1 182315Z 13011KT 35/16 A2987 RMK A01 T03480155  RH  032%=      5-min Rain = 0
KLE1 182316Z 13012KT 35/15 A2987 RMK A01 T03480154  RH  032%=      5-min Rain = 0
KLE1 182317Z 13009KT 35/15 A2988 RMK A01 T03460153  RH  032%=      5-min Rain = 0
KLE1 182318Z 13009KT 35/16 A2988 RMK A01 T03460155  RH  032%=      5-min Rain = 0
KLE1 182319Z 13012KT 35/16 A2988 RMK A01 T03460156  RH  032%=      5-min Rain = 0
KLE1 182320Z 14012KT 35/15 A2988 RMK A01 T03450154  RH  032%=      5-min Rain = 0
KLE1 182321Z 15012KT 34/15 A2988 RMK A01 T03440154  RH  032%=      5-min Rain = 0
KLE1 182322Z 14012KT 34/15 A2988 RMK A01 T03430154  RH  032%=      5-min Rain = 0
KLE1 182323Z 15012KT 34/15 A2988 RMK A01 T03420153  RH  032%=      5-min Rain = 0
KLE1 182324Z 15011KT 34/15 A2988 RMK A01 T03410153  RH  032%=      5-min Rain = 0
KLE1 182325Z 15010KT 34/15 A2988 RMK A01 T03410153  RH  032%=      5-min Rain = 0
KLE1 182326Z 15011KT 34/15 A2988 RMK A01 T03400152  RH  032%=      5-min Rain = 0
KLE1 182327Z 15009KT 34/15 A2989 RMK A01 T03400152  RH  032%=      5-min Rain = 0
KLE1 182328Z 15009KT 34/15 A2989 RMK A01 T03390152  RH  032%=      5-min Rain = 0
KLE1 182329Z 15008KT 34/15 A2989 RMK A01 T03390152  RH  033%=      5-min Rain = 0
KLE1 182330Z 16006KT 34/15 A2989 RMK A01 T03380152  RH  033%=      5-min Rain = 0
KLE1 182331Z 16008KT 34/15 A2989 RMK A01 T03380152  RH  033%=      5-min Rain = 0
KLE1 182332Z 15007KT 34/15 A2989 RMK A01 T03380152  RH  033%=      5-min Rain = 0
KLE1 182333Z 15007KT 34/15 A2989 RMK A01 T03370152  RH  033%=      5-min Rain = 0
KLE1 182334Z 15006KT 34/15 A2989 RMK A01 T03370152  RH  033%=      5-min Rain = 0
KLE1 182335Z 15009KT 34/15 A2989 RMK A01 T03360152  RH  033%=      5-min Rain = 0
KLE1 182336Z 15011KT 34/15 A2989 RMK A01 T03360153  RH  033%=      5-min Rain = 0
KLE1 182337Z 14010KT 34/15 A2989 RMK A01 T03360153  RH  033%=      5-min Rain = 0
KLE1 182338Z 14008KT 34/15 A2989 RMK A01 T03360154  RH  034%=      5-min Rain = 0
KLE1 182339Z 14009KT 34/16 A2989 RMK A01 T03360157  RH  034%=      5-min Rain = 0
KLE1 182340Z 13011KT 34/16 A2989 RMK A01 T03350160  RH  035%=      5-min Rain = 0
KLE1 182341Z 14012KT 34/16 A2989 RMK A01 T03350162  RH  036%=      5-min Rain = 0
KLE1 182342Z 14010KT 34/16 A2989 RMK A01 T03350162  RH  036%=      5-min Rain = 0
KLE1 182343Z 12010KT 33/16 A299 RMK A01 T03340162  RH  036%=      5-min Rain = 0
KLE1 182344Z 12009KT 33/16 A299 RMK A01 T03340162  RH  036%=      5-min Rain = 0
KLE1 182345Z 12009KT 33/16 A299 RMK A01 T03340163  RH  036%=      5-min Rain = 0
KLE1 182346Z 13011KT 33/16 A299 RMK A01 T03340164  RH  036%=      5-min Rain = 0
KLE1 182347Z 13012KT 33/16 A299 RMK A01 T03330164  RH  036%=      5-min Rain = 0
KLE1 182348Z 13011KT 33/16 A299 RMK A01 T03330164  RH  036%=      5-min Rain = 0
KLE1 182349Z 13010KT 33/16 A299 RMK A01 T03330163  RH  036%=      5-min Rain = 0
KLE1 182350Z 12009KT 33/16 A299 RMK A01 T03330164  RH  036%=      5-min Rain = 0
KLE1 182351Z 13010KT 33/16 A299 RMK A01 T03330164  RH  036%=      5-min Rain = 0
KLE1 182352Z 12010KT 33/16 A299 RMK A01 T03330164  RH  036%=      5-min Rain = 0
KLE1 182353Z 12010KT 33/16 A299 RMK A01 T03330164  RH  036%=      5-min Rain = 0
KLE1 182354Z 12010KT 33/16 A299 RMK A01 T03330163  RH  036%=      5-min Rain = 0
KLE1 182355Z 12009KT 33/16 A299 RMK A01 T03330163  RH  036%=      5-min Rain = 0
KLE1 182356Z 13010KT 33/16 A299 RMK A01 T03330163  RH  036%=      5-min Rain = 0
KLE1 182357Z 13010KT 33/16 A299 RMK A01 T03340163  RH  036%=      5-min Rain = 0
KLE1 182358Z 13008KT 33/16 A299 RMK A01 T03330164  RH  036%=      5-min Rain = 0
KLE1 182359Z 12007KT 33/16 A299 RMK A01 T03330164  RH  037%=      5-min Rain = 0
KLE1 190000Z 12008KT 33/17 A299 RMK A01 T03320165  RH  037%=      5-min Rain = 0
KLE1 190001Z 12008KT 33/17 A299 RMK A01 T03310165  RH  037%=      5-min Rain = 0
KLE1 190002Z 12008KT 33/17 A299 RMK A01 T03300165  RH  037%=      5-min Rain = 0
KLE1 190003Z 12008KT 33/17 A299 RMK A01 T03290165  RH  037%=      5-min Rain = 0
KLE1 190004Z 12008KT 33/17 A299 RMK A01 T03290165  RH  038%=      5-min Rain = 0
KLE1 190005Z 12007KT 33/17 A299 RMK A01 T03280165  RH  038%=      5-min Rain = 0
KLE1 190006Z 12008KT 33/17 A299 RMK A01 T03280165  RH  038%=      5-min Rain = 0
KLE1 190007Z 12008KT 33/17 A299 RMK A01 T03270165  RH  038%=      5-min Rain = 0
KLE1 190008Z 12008KT 33/17 A299 RMK A01 T03270166  RH  038%=      5-min Rain = 0
KLE1 190009Z 11009KT 33/17 A299 RMK A01 T03260166  RH  038%=      5-min Rain = 0
KLE1 190010Z 12009KT 33/17 A299 RMK A01 T03260165  RH  038%=      5-min Rain = 0
KLE1 190011Z 12009KT 33/17 A299 RMK A01 T03270166  RH  038%=      5-min Rain = 0
KLE1 190012Z 12009KT 33/17 A299 RMK A01 T03270166  RH  038%=      5-min Rain = 0
KLE1 190013Z 11010KT 33/17 A299 RMK A01 T03260166  RH  038%=      5-min Rain = 0
KLE1 190014Z 11009KT 33/17 A299 RMK A01 T03260166  RH  038%=      5-min Rain = 0
KLE1 190015Z 11009KT 33/17 A299 RMK A01 T03260166  RH  038%=      5-min Rain = 0
KLE1 190016Z 11010KT 33/17 A299 RMK A01 T03260167  RH  039%=      5-min Rain = 0
KLE1 190017Z 11010KT 33/17 A299 RMK A01 T03260167  RH  039%=      5-min Rain = 0
KLE1 190018Z 11010KT 33/17 A299 RMK A01 T03250167  RH  039%=      5-min Rain = 0
KLE1 190019Z 11010KT 33/17 A299 RMK A01 T03250167  RH  039%=      5-min Rain = 0
KLE1 190020Z 11010KT 33/17 A299 RMK A01 T03250167  RH  039%=      5-min Rain = 0
KLE1 190021Z 11010KT 32/17 A299 RMK A01 T03240167  RH  039%=      5-min Rain = 0
KLE1 190022Z 12009KT 32/17 A299 RMK A01 T03240168  RH  039%=      5-min Rain = 0
KLE1 190023Z 11009KT 32/17 A299 RMK A01 T03230167  RH  039%=      5-min Rain = 0
KLE1 190024Z 11010KT 32/17 A299 RMK A01 T03230167  RH  039%=      5-min Rain = 0
KLE1 190025Z 12010KT 32/17 A299 RMK A01 T03220167  RH  039%=      5-min Rain = 0
KLE1 190026Z 11010KT 32/17 A299 RMK A01 T03220167  RH  039%=      5-min Rain = 0
KLE1 190027Z 12010KT 32/17 A299 RMK A01 T03220167  RH  040%=      5-min Rain = 0
KLE1 190028Z 11010KT 32/17 A299 RMK A01 T03220167  RH  039%=      5-min Rain = 0
KLE1 190029Z 11010KT 32/17 A299 RMK A01 T03210166  RH  039%=      5-min Rain = 0
KLE1 190030Z 11009KT 32/17 A299 RMK A01 T03220166  RH  039%=      5-min Rain = 0
KLE1 190031Z 11011KT 32/17 A299 RMK A01 T03220166  RH  039%=      5-min Rain = 0
KLE1 190032Z 12011KT 32/17 A299 RMK A01 T03220166  RH  039%=      5-min Rain = 0
KLE1 190033Z 12011KT 32/17 A299 RMK A01 T03210166  RH  039%=      5-min Rain = 0
KLE1 190034Z 12012KT 32/17 A299 RMK A01 T03210166  RH  039%=      5-min Rain = 0
KLE1 190035Z 12011KT 32/17 A299 RMK A01 T03210166  RH  039%=      5-min Rain = 0
KLE1 190036Z 12011KT 32/17 A299 RMK A01 T03210166  RH  040%=      5-min Rain = 0
KLE1 190037Z 12011KT 32/17 A299 RMK A01 T03200166  RH  040%=      5-min Rain = 0
KLE1 190038Z 12012KT 32/17 A299 RMK A01 T03200166  RH  040%=      5-min Rain = 0
KLE1 190039Z 11011KT 32/17 A299 RMK A01 T03200166  RH  040%=      5-min Rain = 0
KLE1 190040Z 11011KT 32/17 A299 RMK A01 T03190166  RH  040%=      5-min Rain = 0
KLE1 190041Z 11010KT 32/17 A299 RMK A01 T03190166  RH  040%=      5-min Rain = 0
KLE1 190042Z 11010KT 32/17 A299 RMK A01 T03180166  RH  040%=      5-min Rain = 0
KLE1 190043Z 11011KT 32/17 A299 RMK A01 T03180166  RH  040%=      5-min Rain = 0
KLE1 190044Z 11011KT 32/17 A299 RMK A01 T03180167  RH  040%=      5-min Rain = 0
KLE1 190045Z 11011KT 32/17 A299 RMK A01 T03170167  RH  041%=      5-min Rain = 0
KLE1 190046Z 11011KT 32/17 A299 RMK A01 T03170167  RH  041%=      5-min Rain = 0
KLE1 190047Z 11011KT 32/17 A299 RMK A01 T03160168  RH  041%=      5-min Rain = 0
KLE1 190048Z 11011KT 32/17 A299 RMK A01 T03160168  RH  041%=      5-min Rain = 0
KLE1 190049Z 11011KT 32/17 A299 RMK A01 T03150168  RH  041%=      5-min Rain = 0
KLE1 190050Z 11010KT 32/17 A299 RMK A01 T03150168  RH  041%=      5-min Rain = 0
KLE1 190051Z 11010KT 31/17 A299 RMK A01 T03140168  RH  042%=      5-min Rain = 0
KLE1 190052Z 11012KT 31/17 A299 RMK A01 T03140169  RH  042%=      5-min Rain = 0
KLE1 190053Z 11010KT 31/17 A299 RMK A01 T03140169  RH  042%=      5-min Rain = 0
KLE1 190054Z 11010KT 31/17 A299 RMK A01 T03130169  RH  042%=      5-min Rain = 0
KLE1 190055Z 11011KT 31/17 A299 RMK A01 T03120169  RH  042%=      5-min Rain = 0
KLE1 190056Z 11011KT 31/17 A2991 RMK A01 T03120170  RH  043%=      5-min Rain = 0
KLE1 190057Z 11011KT 31/17 A2991 RMK A01 T03120170  RH  043%=      5-min Rain = 0
KLE1 190058Z 11012KT 31/17 A2991 RMK A01 T03110169  RH  043%=      5-min Rain = 0
KLE1 190059Z 10012KT 31/17 A299 RMK A01 T03120169  RH  043%=      5-min Rain = 0
KLE1 190100Z 11013KT 31/17 A299 RMK A01 T03120169  RH  042%=      5-min Rain = 0
KLE1 190101Z 11012KT 31/17 A2991 RMK A01 T03120169  RH  042%=      5-min Rain = 0
KLE1 190102Z 11012KT 31/17 A2991 RMK A01 T03120169  RH  042%=      5-min Rain = 0
KLE1 190103Z 10011KT 31/17 A2991 RMK A01 T03120169  RH  042%=      5-min Rain = 0
KLE1 190104Z 11013KT 31/17 A2991 RMK A01 T03120169  RH  042%=      5-min Rain = 0
KLE1 190105Z 11012KT 31/17 A2991 RMK A01 T03120169  RH  042%=      5-min Rain = 0
KLE1 190106Z 10012KT 31/17 A2991 RMK A01 T03120169  RH  042%=      5-min Rain = 0
KLE1 190107Z 11013KT 31/17 A2991 RMK A01 T03120169  RH  042%=      5-min Rain = 0
KLE1 190108Z 11012KT 31/17 A2991 RMK A01 T03120169  RH  042%=      5-min Rain = 0
KLE1 190109Z 11012KT 31/17 A2991 RMK A01 T03120168  RH  042%=      5-min Rain = 0
KLE1 190110Z 11012KT 31/17 A2991 RMK A01 T03120168  RH  042%=      5-min Rain = 0
KLE1 190111Z 11013KT 31/17 A2991 RMK A01 T03120169  RH  042%=      5-min Rain = 0
KLE1 190112Z 11012KT 31/17 A2991 RMK A01 T03110169  RH  042%=      5-min Rain = 0
KLE1 190113Z 11014KT 31/17 A2991 RMK A01 T03110168  RH  042%=      5-min Rain = 0
KLE1 190114Z 11014KT 31/17 A2991 RMK A01 T03110168  RH  042%=      5-min Rain = 0
KLE1 190115Z 11014KT 31/17 A2991 RMK A01 T03110169  RH  042%=      5-min Rain = 0
KLE1 190116Z 11013KT 31/17 A2991 RMK A01 T03110168  RH  042%=      5-min Rain = 0
KLE1 190117Z 11014KT 31/17 A2991 RMK A01 T03110169  RH  042%=      5-min Rain = 0
KLE1 190118Z 11014KT 31/17 A2991 RMK A01 T03110169  RH  043%=      5-min Rain = 0
KLE1 190119Z 11013KT 31/17 A2991 RMK A01 T03110169  RH  043%=      5-min Rain = 0
KLE1 190120Z 11014KT 31/17 A2991 RMK A01 T03110169  RH  043%=      5-min Rain = 0
KLE1 190121Z 11014KT 31/17 A2991 RMK A01 T03100169  RH  043%=      5-min Rain = 0
KLE1 190122Z 11014KT 31/17 A2991 RMK A01 T03100169  RH  043%=      5-min Rain = 0
KLE1 190123Z 11013KT 31/17 A2991 RMK A01 T03090169  RH  043%=      5-min Rain = 0
KLE1 190124Z 11013KT 31/17 A2991 RMK A01 T03090169  RH  043%=      5-min Rain = 0
KLE1 190125Z 11013KT 31/17 A2992 RMK A01 T03080169  RH  043%=      5-min Rain = 0
KLE1 190126Z 11012KT 31/17 A2992 RMK A01 T03080169  RH  043%=      5-min Rain = 0
KLE1 190127Z 11013KT 31/17 A2992 RMK A01 T03070169  RH  044%=      5-min Rain = 0
KLE1 190128Z 11013KT 31/17 A2992 RMK A01 T03070170  RH  044%=      5-min Rain = 0
KLE1 190129Z 11012KT 31/17 A2992 RMK A01 T03070170  RH  044%=      5-min Rain = 0
KLE1 190130Z 11012KT 31/17 A2992 RMK A01 T03060170  RH  044%=      5-min Rain = 0
KLE1 190131Z 11012KT 31/17 A2992 RMK A01 T03060170  RH  044%=      5-min Rain = 0
KLE1 190132Z 11011KT 31/17 A2992 RMK A01 T03050170  RH  044%=      5-min Rain = 0
KLE1 190133Z 10010KT 31/17 A2992 RMK A01 T03050170  RH  044%=      5-min Rain = 0
KLE1 190134Z 10011KT 31/17 A2992 RMK A01 T03050170  RH  044%=      5-min Rain = 0
KLE1 190135Z 10012KT 30/17 A2992 RMK A01 T03040170  RH  045%=      5-min Rain = 0
KLE1 190136Z 10013KT 30/17 A2992 RMK A01 T03030170  RH  045%=      5-min Rain = 0
KLE1 190137Z 10012KT 30/17 A2992 RMK A01 T03020170  RH  045%=      5-min Rain = 0
KLE1 190138Z 10012KT 30/17 A2992 RMK A01 T03020170  RH  045%=      5-min Rain = 0
KLE1 190139Z 10012KT 30/17 A2992 RMK A01 T03020170  RH  045%=      5-min Rain = 0
KLE1 190140Z 10012KT 30/17 A2992 RMK A01 T03020171  RH  045%=      5-min Rain = 0
KLE1 190141Z 10013KT 30/17 A2992 RMK A01 T03010170  RH  045%=      5-min Rain = 0
KLE1 190142Z 10013KT 30/17 A2992 RMK A01 T03010171  RH  046%=      5-min Rain = 0
KLE1 190143Z 10013KT 30/17 A2992 RMK A01 T03010171  RH  046%=      5-min Rain = 0
KLE1 190144Z 10013KT 30/17 A2993 RMK A01 T03010171  RH  046%=      5-min Rain = 0
KLE1 190145Z 10012KT 30/17 A2993 RMK A01 T03000171  RH  046%=      5-min Rain = 0
KLE1 190146Z 10013KT 30/17 A2993 RMK A01 T03000172  RH  046%=      5-min Rain = 0
KLE1 190147Z 11013KT 30/17 A2993 RMK A01 T03000171  RH  046%=      5-min Rain = 0
KLE1 190148Z 10012KT 30/17 A2993 RMK A01 T03000171  RH  046%=      5-min Rain = 0
KLE1 190149Z 10012KT 30/17 A2993 RMK A01 T03000171  RH  046%=      5-min Rain = 0
KLE1 190150Z 10011KT 30/17 A2993 RMK A01 T03000172  RH  046%=      5-min Rain = 0
KLE1 190151Z 10012KT 30/17 A2994 RMK A01 T02990171  RH  046%=      5-min Rain = 0
KLE1 190152Z 10012KT 30/17 A2994 RMK A01 T02990172  RH  046%=      5-min Rain = 0
KLE1 190153Z 10013KT 30/17 A2994 RMK A01 T02990172  RH  047%=      5-min Rain = 0
KLE1 190154Z 10012KT 30/17 A2994 RMK A01 T02980172  RH  047%=      5-min Rain = 0
KLE1 190155Z 10011KT 30/17 A2994 RMK A01 T02980172  RH  047%=      5-min Rain = 0
KLE1 190156Z 10011KT 30/17 A2994 RMK A01 T02980172  RH  047%=      5-min Rain = 0
KLE1 190157Z 10011KT 30/17 A2994 RMK A01 T02980172  RH  047%=      5-min Rain = 0
KLE1 190158Z 10011KT 30/17 A2994 RMK A01 T02980172  RH  047%=      5-min Rain = 0
KLE1 190159Z 11012KT 30/17 A2994 RMK A01 T02970173  RH  047%=      5-min Rain = 0
KLE1 190200Z 10012KT 30/17 A2995 RMK A01 T02970173  RH  047%=      5-min Rain = 0
KLE1 190201Z 10012KT 30/17 A2995 RMK A01 T02970173  RH  047%=      5-min Rain = 0
KLE1 190202Z 10013KT 30/17 A2995 RMK A01 T02970173  RH  047%=      5-min Rain = 0
KLE1 190203Z 11012KT 30/17 A2995 RMK A01 T02970173  RH  047%=      5-min Rain = 0
KLE1 190204Z 10011KT 30/17 A2995 RMK A01 T02970174  RH  048%=      5-min Rain = 0
KLE1 190205Z 10012KT 30/17 A2995 RMK A01 T02960173  RH  048%=      5-min Rain = 0
KLE1 190206Z 10011KT 30/17 A2995 RMK A01 T02960173  RH  048%=      5-min Rain = 0
KLE1 190207Z 10012KT 30/17 A2995 RMK A01 T02950173  RH  048%=      5-min Rain = 0
KLE1 190208Z 10012KT 30/17 A2995 RMK A01 T02950174  RH  048%=      5-min Rain = 0
KLE1 190209Z 10012KT 30/17 A2995 RMK A01 T02950174  RH  048%=      5-min Rain = 0
KLE1 190210Z 10012KT 30/17 A2995 RMK A01 T02950174  RH  048%=      5-min Rain = 0
KLE1 190211Z 10011KT 29/17 A2995 RMK A01 T02940174  RH  048%=      5-min Rain = 0
KLE1 190212Z 10011KT 29/17 A2995 RMK A01 T02930173  RH  048%=      5-min Rain = 0
KLE1 190213Z 10011KT 29/17 A2995 RMK A01 T02930174  RH  049%=      5-min Rain = 0
KLE1 190214Z 11011KT 29/17 A2995 RMK A01 T02920174  RH  049%=      5-min Rain = 0
KLE1 190215Z 11011KT 29/17 A2995 RMK A01 T02920174  RH  049%=      5-min Rain = 0
KLE1 190216Z 11011KT 29/17 A2995 RMK A01 T02920174  RH  049%=      5-min Rain = 0
KLE1 190217Z 11012KT 29/17 A2995 RMK A01 T02920174  RH  049%=      5-min Rain = 0
KLE1 190218Z 11011KT 29/17 A2995 RMK A01 T02910174  RH  049%=      5-min Rain = 0
KLE1 190219Z 11011KT 29/17 A2995 RMK A01 T02910174  RH  049%=      5-min Rain = 0
KLE1 190220Z 11011KT 29/17 A2995 RMK A01 T02910174  RH  049%=      5-min Rain = 0
KLE1 190221Z 11011KT 29/18 A2995 RMK A01 T02910175  RH  049%=      5-min Rain = 0
KLE1 190222Z 11012KT 29/17 A2995 RMK A01 T02900174  RH  049%=      5-min Rain = 0
KLE1 190223Z 11011KT 29/17 A2995 RMK A01 T02910174  RH  049%=      5-min Rain = 0
KLE1 190224Z 11011KT 29/17 A2995 RMK A01 T02910174  RH  049%=      5-min Rain = 0
KLE1 190225Z 11012KT 29/18 A2995 RMK A01 T02910175  RH  050%=      5-min Rain = 0
KLE1 190226Z 11011KT 29/17 A2995 RMK A01 T02900174  RH  050%=      5-min Rain = 0
KLE1 190227Z 11010KT 29/17 A2995 RMK A01 T02900174  RH  050%=      5-min Rain = 0
KLE1 190228Z 10011KT 29/18 A2995 RMK A01 T02900175  RH  050%=      5-min Rain = 0
KLE1 190229Z 11010KT 29/18 A2996 RMK A01 T02890175  RH  050%=      5-min Rain = 0
KLE1 190230Z 11009KT 29/18 A2996 RMK A01 T02890175  RH  050%=      5-min Rain = 0
KLE1 190231Z 11010KT 29/17 A2996 RMK A01 T02880174  RH  050%=      5-min Rain = 0
KLE1 190232Z 10009KT 29/17 A2996 RMK A01 T02880174  RH  050%=      5-min Rain = 0
KLE1 190233Z 10010KT 29/17 A2996 RMK A01 T02870174  RH  050%=      5-min Rain = 0
KLE1 190234Z 10009KT 29/18 A2996 RMK A01 T02870175  RH  051%=      5-min Rain = 0
KLE1 190235Z 10010KT 29/18 A2996 RMK A01 T02870175  RH  051%=      5-min Rain = 0
KLE1 190236Z 10010KT 29/18 A2996 RMK A01 T02870175  RH  051%=      5-min Rain = 0
KLE1 190237Z 10009KT 29/18 A2996 RMK A01 T02860175  RH  051%=      5-min Rain = 0
KLE1 190238Z 10010KT 29/17 A2996 RMK A01 T02860174  RH  051%=      5-min Rain = 0
KLE1 190239Z 11009KT 29/18 A2996 RMK A01 T02860175  RH  051%=      5-min Rain = 0
KLE1 190240Z 10009KT 29/18 A2996 RMK A01 T02850175  RH  051%=      5-min Rain = 0
KLE1 190241Z 11010KT 29/17 A2996 RMK A01 T02850174  RH  051%=      5-min Rain = 0
KLE1 190242Z 10010KT 28/18 A2996 RMK A01 T02840175  RH  051%=      5-min Rain = 0
KLE1 190243Z 11010KT 28/18 A2996 RMK A01 T02840175  RH  051%=      5-min Rain = 0
KLE1 190244Z 10009KT 29/18 A2996 RMK A01 T02850175  RH  051%=      5-min Rain = 0
KLE1 190245Z 11009KT 29/18 A2996 RMK A01 T02850175  RH  051%=      5-min Rain = 0
KLE1 190246Z 11009KT 29/18 A2996 RMK A01 T02850175  RH  051%=      5-min Rain = 0
KLE1 190247Z 10009KT 28/18 A2996 RMK A01 T02840175  RH  051%=      5-min Rain = 0
KLE1 190248Z 11009KT 28/18 A2996 RMK A01 T02840175  RH  052%=      5-min Rain = 0
KLE1 190249Z 11009KT 28/18 A2996 RMK A01 T02830175  RH  052%=      5-min Rain = 0
KLE1 190250Z 11009KT 28/18 A2996 RMK A01 T02830175  RH  052%=      5-min Rain = 0
KLE1 190251Z 11010KT 28/18 A2996 RMK A01 T02840175  RH  052%=      5-min Rain = 0
KLE1 190252Z 11009KT 28/18 A2996 RMK A01 T02830175  RH  052%=      5-min Rain = 0
KLE1 190253Z 11009KT 28/18 A2996 RMK A01 T02830175  RH  052%=      5-min Rain = 0
KLE1 190254Z 11009KT 28/18 A2996 RMK A01 T02820175  RH  052%=      5-min Rain = 0
KLE1 190255Z 11009KT 28/18 A2996 RMK A01 T02820175  RH  052%=      5-min Rain = 0
KLE1 190256Z 11009KT 28/18 A2996 RMK A01 T02820175  RH  052%=      5-min Rain = 0
KLE1 190257Z 11009KT 28/18 A2996 RMK A01 T02810175  RH  052%=      5-min Rain = 0
KLE1 190258Z 11009KT 28/18 A2996 RMK A01 T02810175  RH  053%=      5-min Rain = 0
KLE1 190259Z 11010KT 28/18 A2996 RMK A01 T02810175  RH  053%=      5-min Rain = 0
KLE1 190300Z 11009KT 28/18 A2996 RMK A01 T02800175  RH  053%=      5-min Rain = 0
KLE1 190301Z 12009KT 28/18 A2996 RMK A01 T02800175  RH  053%=      5-min Rain = 0
KLE1 190302Z 11009KT 28/18 A2996 RMK A01 T02800175  RH  053%=      5-min Rain = 0
KLE1 190303Z 11009KT 28/18 A2996 RMK A01 T02800175  RH  053%=      5-min Rain = 0
KLE1 190304Z 11010KT 28/18 A2996 RMK A01 T02790175  RH  053%=      5-min Rain = 0
KLE1 190305Z 12009KT 28/18 A2996 RMK A01 T02790175  RH  053%=      5-min Rain = 0
KLE1 190306Z 12009KT 28/18 A2996 RMK A01 T02790175  RH  053%=      5-min Rain = 0
KLE1 190307Z 11009KT 28/18 A2996 RMK A01 T02790175  RH  053%=      5-min Rain = 0
KLE1 190308Z 11010KT 28/18 A2996 RMK A01 T02790175  RH  053%=      5-min Rain = 0
KLE1 190309Z 11010KT 28/18 A2996 RMK A01 T02790175  RH  053%=      5-min Rain = 0
KLE1 190310Z 12010KT 28/18 A2996 RMK A01 T02790175  RH  053%=      5-min Rain = 0
KLE1 190311Z 12010KT 28/18 A2996 RMK A01 T02790175  RH  053%=      5-min Rain = 0
KLE1 190312Z 11011KT 28/18 A2996 RMK A01 T02790175  RH  053%=      5-min Rain = 0
KLE1 190313Z 12010KT 28/18 A2996 RMK A01 T02790175  RH  053%=      5-min Rain = 0
KLE1 190314Z 12010KT 28/18 A2996 RMK A01 T02790175  RH  053%=      5-min Rain = 0
KLE1 190315Z 12010KT 28/17 A2996 RMK A01 T02790174  RH  053%=      5-min Rain = 0
KLE1 190316Z 12009KT 28/18 A2996 RMK A01 T02790175  RH  053%=      5-min Rain = 0
KLE1 190317Z 12009KT 28/18 A2996 RMK A01 T02790175  RH  053%=      5-min Rain = 0
KLE1 190318Z 12010KT 28/18 A2996 RMK A01 T02790175  RH  053%=      5-min Rain = 0
KLE1 190319Z 12009KT 28/17 A2996 RMK A01 T02790174  RH  053%=      5-min Rain = 0
KLE1 190320Z 12009KT 28/17 A2996 RMK A01 T02790174  RH  053%=      5-min Rain = 0
KLE1 190321Z 12010KT 28/18 A2996 RMK A01 T02790175  RH  053%=      5-min Rain = 0
KLE1 190322Z 12010KT 28/18 A2996 RMK A01 T02790175  RH  053%=      5-min Rain = 0
KLE1 190323Z 11009KT 28/18 A2996 RMK A01 T02790175  RH  053%=      5-min Rain = 0
KLE1 190324Z 11008KT 28/17 A2996 RMK A01 T02790174  RH  053%=      5-min Rain = 0
KLE1 190325Z 11009KT 28/18 A2996 RMK A01 T02790175  RH  053%=      5-min Rain = 0
KLE1 190326Z 10009KT 28/18 A2996 RMK A01 T02790175  RH  053%=      5-min Rain = 0
KLE1 190327Z 11009KT 28/18 A2996 RMK A01 T02790175  RH  053%=      5-min Rain = 0
KLE1 190328Z 11009KT 28/18 A2996 RMK A01 T02790175  RH  053%=      5-min Rain = 0
KLE1 190329Z 10008KT 28/18 A2997 RMK A01 T02790175  RH  053%=      5-min Rain = 0
KLE1 190330Z 11009KT 28/18 A2997 RMK A01 T02790175  RH  053%=      5-min Rain = 0
KLE1 190331Z 10008KT 28/18 A2997 RMK A01 T02790175  RH  053%=      5-min Rain = 0
KLE1 190332Z 11009KT 28/18 A2997 RMK A01 T02790175  RH  053%=      5-min Rain = 0
KLE1 190333Z 10008KT 28/18 A2997 RMK A01 T02790175  RH  053%=      5-min Rain = 0
KLE1 190334Z 10008KT 28/18 A2997 RMK A01 T02790175  RH  053%=      5-min Rain = 0
KLE1 190335Z 10008KT 28/18 A2997 RMK A01 T02790175  RH  053%=      5-min Rain = 0
KLE1 190336Z 10008KT 28/18 A2997 RMK A01 T02780175  RH  053%=      5-min Rain = 0
KLE1 190337Z 10008KT 28/18 A2997 RMK A01 T02780175  RH  053%=      5-min Rain = 0
KLE1 190338Z 09008KT 28/18 A2997 RMK A01 T02770175  RH  054%=      5-min Rain = 0
KLE1 190339Z 09007KT 28/18 A2997 RMK A01 T02770175  RH  054%=      5-min Rain = 0
KLE1 190340Z 09007KT 28/18 A2997 RMK A01 T02760175  RH  054%=      5-min Rain = 0
KLE1 190341Z 09007KT 28/17 A2997 RMK A01 T02750174  RH  054%=      5-min Rain = 0
KLE1 190342Z 09007KT 28/18 A2997 RMK A01 T02750175  RH  054%=      5-min Rain = 0
KLE1 190343Z 09006KT 27/17 A2997 RMK A01 T02740174  RH  055%=      5-min Rain = 0
KLE1 190344Z 09006KT 27/17 A2997 RMK A01 T02730174  RH  055%=      5-min Rain = 0
KLE1 190345Z 09006KT 27/17 A2997 RMK A01 T02720174  RH  055%=      5-min Rain = 0
KLE1 190346Z 09006KT 27/18 A2997 RMK A01 T02720175  RH  055%=      5-min Rain = 0
KLE1 190347Z 09006KT 27/18 A2997 RMK A01 T02710175  RH  055%=      5-min Rain = 0
KLE1 190348Z 09006KT 27/18 A2997 RMK A01 T02710175  RH  056%=      5-min Rain = 0
KLE1 190349Z 09006KT 27/17 A2997 RMK A01 T02700174  RH  056%=      5-min Rain = 0
KLE1 190350Z 09006KT 27/18 A2997 RMK A01 T02690175  RH  056%=      5-min Rain = 0
KLE1 190351Z 09005KT 27/18 A2997 RMK A01 T02690175  RH  056%=      5-min Rain = 0
KLE1 190352Z 10006KT 27/18 A2997 RMK A01 T02690175  RH  056%=      5-min Rain = 0
KLE1 190353Z 10006KT 27/18 A2997 RMK A01 T02680175  RH  057%=      5-min Rain = 0
KLE1 190354Z 10006KT 27/18 A2997 RMK A01 T02680175  RH  057%=      5-min Rain = 0
KLE1 190355Z 11006KT 27/18 A2997 RMK A01 T02680176  RH  057%=      5-min Rain = 0
KLE1 190356Z 11005KT 27/18 A2997 RMK A01 T02680175  RH  057%=      5-min Rain = 0
KLE1 190357Z 11006KT 27/18 A2997 RMK A01 T02690176  RH  057%=      5-min Rain = 0
KLE1 190358Z 12007KT 27/18 A2997 RMK A01 T02690175  RH  056%=      5-min Rain = 0
KLE1 190359Z 12006KT 27/18 A2997 RMK A01 T02690176  RH  057%=      5-min Rain = 0
KLE1 190400Z 12007KT 27/18 A2997 RMK A01 T02700176  RH  056%=      5-min Rain = 0
KLE1 190401Z 12007KT 27/18 A2997 RMK A01 T02700176  RH  056%=      5-min Rain = 0
KLE1 190402Z 13007KT 27/18 A2997 RMK A01 T02700176  RH  057%=      5-min Rain = 0
KLE1 190403Z 12008KT 27/18 A2997 RMK A01 T02700177  RH  057%=      5-min Rain = 0
KLE1 190404Z 12008KT 27/18 A2997 RMK A01 T02700177  RH  057%=      5-min Rain = 0
KLE1 190405Z 12008KT 27/18 A2997 RMK A01 T02690177  RH  057%=      5-min Rain = 0
KLE1 190406Z 12008KT 27/18 A2997 RMK A01 T02680177  RH  057%=      5-min Rain = 0
KLE1 190407Z 12008KT 27/18 A2997 RMK A01 T02680177  RH  057%=      5-min Rain = 0
KLE1 190408Z 12008KT 27/18 A2997 RMK A01 T02670177  RH  058%=      5-min Rain = 0
KLE1 190409Z 12007KT 27/18 A2997 RMK A01 T02670177  RH  058%=      5-min Rain = 0
KLE1 190410Z 12008KT 27/18 A2997 RMK A01 T02670177  RH  058%=      5-min Rain = 0
KLE1 190411Z 12007KT 27/18 A2997 RMK A01 T02660177  RH  058%=      5-min Rain = 0
KLE1 190412Z 12007KT 27/18 A2997 RMK A01 T02660177  RH  058%=      5-min Rain = 0
KLE1 190413Z 12007KT 27/18 A2997 RMK A01 T02650177  RH  058%=      5-min Rain = 0
KLE1 190414Z 12006KT 27/18 A2997 RMK A01 T02650177  RH  059%=      5-min Rain = 0
KLE1 190415Z 12007KT 26/18 A2997 RMK A01 T02640177  RH  059%=      5-min Rain = 0
KLE1 190416Z 12007KT 26/18 A2997 RMK A01 T02640177  RH  059%=      5-min Rain = 0
KLE1 190417Z 12006KT 26/18 A2997 RMK A01 T02630177  RH  059%=      5-min Rain = 0
KLE1 190418Z 12007KT 26/18 A2997 RMK A01 T02630177  RH  059%=      5-min Rain = 0
KLE1 190419Z 12007KT 26/18 A2997 RMK A01 T02620177  RH  059%=      5-min Rain = 0
KLE1 190420Z 12006KT 26/18 A2997 RMK A01 T02620177  RH  060%=      5-min Rain = 0
KLE1 190421Z 12006KT 26/18 A2997 RMK A01 T02620178  RH  060%=      5-min Rain = 0
KLE1 190422Z 12006KT 26/18 A2997 RMK A01 T02610178  RH  060%=      5-min Rain = 0
KLE1 190423Z 11006KT 26/18 A2997 RMK A01 T02610178  RH  060%=      5-min Rain = 0
KLE1 190424Z 11005KT 26/18 A2997 RMK A01 T02610177  RH  060%=      5-min Rain = 0
KLE1 190425Z 11005KT 26/18 A2997 RMK A01 T02610178  RH  060%=      5-min Rain = 0
KLE1 190426Z 11006KT 26/18 A2997 RMK A01 T02610177  RH  060%=      5-min Rain = 0
KLE1 190427Z 11006KT 26/18 A2997 RMK A01 T02610177  RH  060%=      5-min Rain = 0
KLE1 190428Z 12005KT 26/18 A2997 RMK A01 T02610177  RH  060%=      5-min Rain = 0
KLE1 190429Z 11005KT 26/18 A2997 RMK A01 T02600177  RH  060%=      5-min Rain = 0
KLE1 190430Z 12005KT 26/18 A2997 RMK A01 T02600177  RH  060%=      5-min Rain = 0
KLE1 190431Z 12005KT 26/18 A2997 RMK A01 T02600178  RH  060%=      5-min Rain = 0
KLE1 190432Z 12004KT 26/18 A2997 RMK A01 T02600178  RH  060%=      5-min Rain = 0
KLE1 190433Z 12005KT 26/18 A2997 RMK A01 T02600178  RH  060%=      5-min Rain = 0
KLE1 190434Z 13004KT 26/18 A2997 RMK A01 T02600178  RH  061%=      5-min Rain = 0
KLE1 190435Z 13004KT 26/18 A2997 RMK A01 T02600178  RH  061%=      5-min Rain = 0
KLE1 190436Z 13005KT 26/18 A2997 RMK A01 T02590178  RH  061%=      5-min Rain = 0
KLE1 190437Z 13005KT 26/18 A2997 RMK A01 T02590178  RH  061%=      5-min Rain = 0
KLE1 190438Z 13006KT 26/18 A2997 RMK A01 T02590178  RH  061%=      5-min Rain = 0
KLE1 190439Z 13005KT 26/18 A2997 RMK A01 T02590178  RH  061%=      5-min Rain = 0
KLE1 190440Z 13006KT 26/18 A2997 RMK A01 T02590178  RH  061%=      5-min Rain = 0
KLE1 190441Z 13005KT 26/18 A2997 RMK A01 T02590178  RH  061%=      5-min Rain = 0
KLE1 190442Z 13005KT 26/18 A2997 RMK A01 T02590178  RH  061%=      5-min Rain = 0
KLE1 190443Z 12005KT 26/18 A2997 RMK A01 T02590178  RH  061%=      5-min Rain = 0
KLE1 190444Z 12005KT 26/18 A2997 RMK A01 T02590178  RH  061%=      5-min Rain = 0
KLE1 190445Z 12005KT 26/18 A2997 RMK A01 T02580178  RH  061%=      5-min Rain = 0
KLE1 190446Z 12005KT 26/18 A2997 RMK A01 T02580177  RH  061%=      5-min Rain = 0
KLE1 190447Z 11005KT 26/18 A2997 RMK A01 T02570178  RH  061%=      5-min Rain = 0
KLE1 190448Z 11006KT 26/18 A2997 RMK A01 T02570177  RH  061%=      5-min Rain = 0
KLE1 190449Z 11006KT 26/18 A2997 RMK A01 T02560177  RH  062%=      5-min Rain = 0
KLE1 190450Z 11006KT 26/18 A2997 RMK A01 T02560177  RH  062%=      5-min Rain = 0
KLE1 190451Z 12006KT 26/18 A2997 RMK A01 T02550177  RH  062%=      5-min Rain = 0
KLE1 190452Z 12006KT 25/18 A2997 RMK A01 T02540177  RH  062%=      5-min Rain = 0
KLE1 190453Z 12006KT 25/18 A2997 RMK A01 T02540177  RH  062%=      5-min Rain = 0
KLE1 190454Z 12007KT 25/18 A2997 RMK A01 T02540177  RH  062%=      5-min Rain = 0
KLE1 190455Z 12007KT 25/18 A2997 RMK A01 T02540177  RH  063%=      5-min Rain = 0
KLE1 190456Z 12007KT 25/18 A2997 RMK A01 T02540178  RH  063%=      5-min Rain = 0
KLE1 190457Z 12007KT 25/18 A2997 RMK A01 T02540178  RH  063%=      5-min Rain = 0
KLE1 190458Z 13007KT 25/18 A2997 RMK A01 T02540178  RH  063%=      5-min Rain = 0
KLE1 190459Z 13007KT 25/18 A2997 RMK A01 T02540178  RH  063%=      5-min Rain = 0

Page generated in 0.1941 seconds.